GFSGBSN_700_rhum_051.txt.gz
RH
28 26 55 64 36 20 21 21 15 9 15 48 46 77 98 90 96 85 64 64 70 72 80 83 84 76 41 100 98 97 73 73 43 30 31 38 24 25 39 37 36 41 39 33 27 29 25
25 31 51 46 20 20 22 18 9 15 26 85 100 100 97 93 93 77 64 61 68 73 78 79 89 84 51 95 90 97 73 67 41 28 30 59 27 27 41 49 40 47 44 33 27 26 27
28 36 54 39 17 22 20 9 20 36 65 98 93 97 94 88 92 89 72 73 67 69 82 86 91 87 56 75 85 73 64 49 59 31 29 67 62 33 31 46 44 50 45 39 25 25 28
30 40 56 29 19 22 14 17 38 56 100 95 90 86 90 96 88 80 82 72 73 78 71 73 74 75 48 82 96 97 86 94 51 40 37 54 90 71 60 57 49 56 64 38 22 24 27
37 43 56 21 22 21 13 36 46 52 92 85 86 88 50 98 70 65 69 72 74 76 79 75 67 85 75 80 94 99 80 98 49 69 58 67 79 84 80 64 73 76 67 48 40 34 35
39 50 54 18 23 15 29 30 26 39 59 80 88 94 75 42 43 56 56 70 72 78 84 85 76 92 85 95 98 100 59 100 68 67 87 95 98 80 77 71 81 83 83 48 33 30 29
36 53 57 18 23 13 23 18 25 36 90 91 78 82 86 72 42 47 58 62 69 82 70 92 75 83 78 85 95 99 76 91 92 95 92 98 96 74 64 78 76 54 42 40 34 42 51
39 44 66 23 24 18 19 25 25 50 82 65 75 85 81 83 55 50 65 58 76 94 78 85 59 99 97 86 86 97 82 99 97 99 99 100 95 83 75 84 72 72 70 68 63 63 60
39 49 69 31 24 18 22 33 21 44 68 53 64 77 78 85 71 52 61 72 91 95 79 61 58 97 98 98 88 93 99 99 98 99 98 99 97 85 86 87 94 98 82 74 73 76 74
40 60 76 45 24 15 25 31 24 28 47 47 46 63 76 89 88 70 68 73 70 68 76 64 66 98 98 99 99 87 94 99 98 98 99 99 96 99 100 95 93 93 87 90 85 77 72
44 63 75 64 24 13 30 30 26 22 33 41 41 56 88 81 82 93 78 68 43 52 67 83 77 98 97 99 96 97 74 98 97 98 97 98 99 95 99 99 100 98 92 95 84 79 77
52 66 72 77 22 16 30 29 31 20 29 46 40 40 56 58 62 69 59 48 75 79 99 80 90 97 99 98 93 81 90 89 99 90 92 88 99 100 99 98 99 98 90 86 84 80 81
43 65 71 87 25 22 17 33 38 25 27 38 57 45 52 63 78 87 88 92 91 92 87 90 91 96 98 97 91 92 99 100 95 98 98 100 100 96 93 99 99 99 93 82 63 79 77
47 54 68 81 58 25 14 33 34 41 35 46 58 65 65 60 93 83 76 74 86 100 98 94 97 98 100 98 97 100 98 95 96 88 91 95 98 98 96 94 85 96 92 75 56 65 58
51 52 53 68 94 22 21 18 30 45 47 50 56 62 75 93 69 57 59 64 92 92 88 98 98 100 99 100 96 98 96 84 89 88 74 88 99 99 98 90 89 94 93 78 61 78 76
58 56 53 57 75 31 25 14 36 37 39 48 52 65 79 84 74 64 67 99 100 100 82 96 93 88 94 92 93 98 95 86 85 87 72 78 89 99 94 100 93 84 81 78 67 73 58
72 61 52 64 76 66 24 21 15 31 36 48 59 58 77 79 67 57 95 96 88 96 85 75 74 89 98 87 91 85 81 85 82 81 84 72 71 99 96 95 88 86 82 69 59 60 57
75 67 64 73 82 87 20 26 17 30 33 45 54 59 63 69 82 88 100 91 85 78 68 70 70 70 80 79 86 80 76 72 78 78 79 72 75 92 94 92 91 85 79 67 55 72 72
82 70 69 76 75 92 39 22 25 11 32 43 45 63 67 64 75 94 95 95 87 77 69 68 68 69 72 74 76 76 75 71 80 77 76 70 77 97 97 94 94 96 85 82 73 54 55
92 70 75 74 75 77 82 48 26 23 15 36 40 55 67 77 82 91 97 93 87 79 70 65 66 65 65 75 68 80 72 79 76 88 84 74 69 68 66 70 75 88 78 82 85 74 65
80 64 76 77 77 74 76 86 30 28 18 26 42 42 74 76 94 90 90 93 85 76 71 69 71 68 66 68 67 82 73 78 77 97 92 82 70 71 71 74 73 76 76 79 86 83 63
69 59 62 82 79 79 74 82 92 23 26 9 40 44 63 80 90 83 94 91 89 83 76 71 70 73 74 74 72 65 72 74 73 78 94 91 77 74 76 73 72 72 77 83 73 72 57
78 77 80 90 80 79 75 76 95 27 27 22 13 49 52 88 88 89 89 91 92 88 85 79 81 81 80 76 79 80 74 76 75 71 85 94 89 78 74 77 81 71 59 58 62 54 52
88 90 94 87 86 82 79 82 94 87 22 28 18 28 60 80 90 89 86 86 93 93 88 90 89 91 92 91 85 90 87 93 91 90 89 89 94 87 85 80 90 78 87 71 58 60 80
91 95 93 89 88 86 88 87 87 74 47 24 27 17 37 60 88 90 87 89 88 90 89 86 91 94 96 97 96 96 100 98 98 91 98 91 95 91 92 90 59 60 88 88 89 98 94
88 89 87 87 86 88 91 88 87 87 64 43 68 28 17 32 87 94 93 90 85 98 96 89 87 96 99 99 94 92 90 95 94 91 92 93 91 94 92 89 86 90 96 96 100 100 98
86 88 86 86 86 88 90 90 90 58 28 23 25 23 16 11 55 100 100 89 83 91 96 88 76 92 100 97 96 90 91 88 94 85 90 97 93 94 88 87 70 87 92 98 99 99 98
86 86 87 87 91 92 92 91 82 23 19 20 15 14 14 15 31 99 98 97 83 80 87 83 80 74 89 100 94 88 95 87 89 90 85 99 100 94 90 83 80 77 99 98 99 98 92
88 81 83 87 92 97 94 79 28 19 22 34 31 21 23 19 61 97 98 98 95 91 96 96 94 96 97 97 95 93 98 96 88 91 95 95 86 87 81 79 95 95 100 99 96 90 90

GFSGBSN_700_rhum_054.txt.gz
RH
22 21 32 55 43 23 23 14 20 28 37 82 96 86 84 87 86 84 88 77 65 65 66 67 62 67 78 76 27 89 62 74 92 59 28 33 33 60 85 63 41 40 62 48 46 41 40
28 24 46 56 30 23 18 20 23 24 37 92 88 82 82 83 88 87 90 62 76 73 63 65 66 79 82 81 31 98 99 90 95 65 31 43 40 58 98 82 61 54 75 43 43 38 38
33 32 54 55 24 23 16 17 13 17 44 92 82 84 86 86 81 78 81 77 78 65 58 58 72 82 85 60 43 85 99 82 87 69 31 35 54 77 81 98 65 74 64 54 40 34 35
34 39 46 64 24 21 22 19 14 19 54 88 83 82 84 94 55 78 70 78 70 74 73 70 73 85 74 73 57 81 98 86 95 63 37 54 71 81 91 84 59 64 75 74 31 29 33
37 38 49 63 37 18 26 25 14 18 85 87 83 75 81 92 48 46 60 62 69 64 68 79 82 72 70 69 94 87 90 98 84 48 55 71 90 81 77 80 95 84 56 60 61 27 36
38 35 57 68 48 19 27 29 19 13 44 83 58 72 85 85 73 40 52 57 72 54 68 83 89 80 64 71 85 97 91 99 76 56 83 98 99 98 99 89 60 67 64 71 58 46 35
43 37 61 75 49 21 29 33 20 13 20 31 40 52 76 83 86 45 46 67 58 62 79 73 70 74 87 64 98 89 98 86 92 62 99 91 99 84 95 84 66 70 74 60 30 42 32
46 49 65 70 66 23 26 29 22 16 21 29 32 50 74 82 87 54 56 56 76 91 87 72 70 92 100 97 98 97 98 99 74 90 99 94 98 97 100 97 72 80 65 64 47 46 45
39 50 67 70 79 24 21 28 28 20 26 33 54 42 71 80 89 59 62 72 83 90 83 74 73 98 93 97 98 99 99 97 85 96 96 98 97 99 100 97 89 87 73 77 72 59 64
37 47 57 70 84 24 16 28 33 23 35 33 51 55 60 64 75 68 67 57 58 68 94 89 94 98 99 93 96 98 99 98 99 99 96 99 99 97 99 93 86 87 85 75 72 79 60
42 50 52 58 76 39 19 30 38 31 42 50 51 55 66 84 45 50 37 42 76 57 88 96 94 98 98 91 84 98 85 98 98 95 99 99 92 93 99 93 93 95 86 88 88 76 72
48 60 57 56 57 78 24 29 37 44 45 52 63 74 76 77 86 76 72 83 63 67 90 95 98 98 92 100 75 100 98 98 98 96 99 98 99 99 98 99 100 93 94 97 83 79 75
61 66 62 60 54 72 26 16 33 40 39 44 58 70 76 78 69 63 57 51 67 91 93 85 98 98 100 99 100 95 97 99 98 98 98 99 99 98 99 99 99 97 98 89 82 89 60
81 74 70 60 59 73 38 19 31 38 37 53 57 56 51 53 58 53 48 54 89 98 100 88 98 99 97 100 99 96 99 93 86 95 100 98 99 99 99 93 94 97 98 74 59 53 44
86 80 75 61 70 76 48 24 17 31 34 50 55 50 39 44 47 46 44 48 93 79 87 99 98 97 98 99 96 99 99 87 96 95 93 96 98 99 100 92 90 95 96 75 49 59 64
97 79 78 69 74 78 59 24 17 26 32 43 54 55 50 40 49 48 38 59 76 82 91 84 87 92 99 89 98 98 92 83 83 80 68 79 98 100 97 92 90 86 80 76 68 65 49
92 82 83 72 76 73 94 33 25 14 29 40 46 55 62 54 46 66 80 91 72 80 79 78 79 86 96 81 80 82 83 82 84 80 69 68 79 99 99 95 96 86 87 69 66 50 34
82 83 75 69 73 69 69 85 44 23 20 34 40 48 52 58 48 56 95 89 86 83 73 73 79 70 79 82 88 78 71 75 78 81 84 72 68 98 97 89 87 85 79 64 66 73 70
78 75 73 68 70 74 73 73 74 36 15 29 39 42 51 59 61 54 74 90 85 76 69 72 78 76 67 75 81 78 72 65 81 77 76 66 71 97 98 96 92 91 79 71 58 53 64
75 75 76 77 76 74 72 74 74 82 26 11 36 42 62 68 75 70 65 76 84 75 66 64 66 69 75 76 69 76 73 72 87 83 75 66 62 64 65 71 75 80 71 76 75 67 64
72 78 77 76 74 75 76 75 70 84 29 21 26 44 53 72 83 84 84 80 80 79 72 69 67 65 67 68 64 70 77 73 72 75 80 74 68 64 62 65 69 72 73 74 72 67 62
70 80 78 78 76 74 78 74 72 80 35 25 12 42 54 82 84 87 91 84 77 78 77 71 72 68 67 70 70 67 74 68 67 71 93 81 72 67 66 65 68 69 72 74 73 80 68
72 80 79 77 75 73 69 77 80 86 55 26 22 20 53 82 84 92 96 89 79 74 76 75 72 75 76 75 75 75 75 75 73 68 74 88 81 70 78 72 75 72 54 58 57 52 46
71 79 76 75 73 72 70 74 86 89 92 30 26 17 42 75 96 96 94 87 88 93 85 85 84 84 80 82 83 82 88 85 86 84 82 91 91 83 90 78 81 59 82 77 61 54 56
68 70 71 74 75 74 75 76 83 83 66 91 41 34 21 42 88 99 96 92 90 87 91 97 96 93 95 95 93 97 97 96 95 94 92 91 91 88 95 88 66 64 86 76 60 67 88
65 73 69 76 74 74 80 82 85 87 84 78 36 44 65 38 31 98 99 96 97 95 92 94 98 100 100 97 95 92 89 98 92 90 90 93 94 98 89 85 60 85 91 91 90 97 86
61 73 70 73 74 77 87 88 90 90 82 46 32 25 39 78 40 59 100 99 98 99 96 88 86 100 99 93 97 96 92 92 96 92 87 96 97 99 94 83 78 89 86 95 98 100 98
67 73 73 72 72 78 86 88 92 58 34 24 20 20 26 26 46 44 99 98 98 96 97 87 86 87 98 99 95 91 94 85 87 83 85 95 95 96 97 90 81 67 91 97 99 98 98
77 77 74 71 72 79 90 91 89 49 20 26 24 64 48 16 7 12 90 98 85 96 94 87 86 81 78 93 92 92 93 94 86 91 86 96 92 94 89 83 80 93 95 99 98 98 97

GFSGBSN_700_rhum_057.txt.gz
RH
62 40 47 56 64 49 26 17 16 13 14 16 42 85 80 83 79 72 71 73 83 73 68 73 69 69 81 89 40 64 45 73 62 88 80 40 35 45 95 99 75 72 65 63 70 50 45
60 44 48 59 63 57 20 17 18 15 15 36 94 86 83 85 81 78 72 72 70 74 72 72 70 69 66 67 70 65 64 67 93 96 85 67 32 47 96 99 90 88 77 78 73 54 48
65 44 50 62 71 45 18 20 22 17 14 49 95 87 82 92 94 83 70 72 74 71 69 69 74 75 76 55 68 69 95 48 91 73 88 55 90 97 95 99 100 98 80 83 76 64 51
67 46 56 64 70 46 18 21 25 16 17 38 81 88 57 85 91 77 48 68 66 65 65 65 67 74 76 70 74 54 100 100 63 78 97 54 98 96 96 97 97 97 85 79 71 54 54
73 52 56 64 70 57 18 26 26 17 21 34 46 40 65 76 90 68 45 62 57 59 58 63 71 78 71 66 64 49 97 98 99 98 96 48 98 95 96 95 97 90 66 59 53 57 59
89 52 52 55 67 65 19 28 27 22 26 49 53 46 68 78 88 58 46 48 55 64 56 68 79 87 59 74 67 47 91 99 98 98 81 62 84 95 94 90 73 65 58 43 44 60 56
88 53 53 53 62 76 21 29 31 28 37 42 53 52 66 78 84 56 43 48 65 61 76 88 96 74 96 83 72 90 87 98 99 91 75 94 99 96 90 72 55 47 50 37 44 52 58
74 53 55 56 56 77 24 30 37 38 49 58 59 62 57 72 78 48 48 58 64 81 93 75 71 65 87 97 100 69 79 98 98 97 98 99 92 98 88 74 63 62 51 48 59 59 54
84 60 62 60 59 62 35 24 40 42 50 57 68 69 76 63 64 68 65 56 71 87 90 85 75 80 98 91 96 90 90 91 94 96 98 99 99 90 99 85 72 63 63 52 59 70 61
88 77 67 67 62 63 60 17 37 42 48 52 66 79 76 45 41 40 57 68 64 70 95 88 82 97 92 99 100 83 87 92 99 90 98 100 100 96 99 92 73 61 61 60 80 67 42
92 87 73 74 65 68 67 20 30 42 52 60 60 51 68 77 73 59 44 43 59 77 92 92 89 78 95 97 96 99 96 99 100 97 100 95 91 98 98 90 78 64 79 87 83 74 71
73 83 76 73 68 68 68 24 21 34 50 56 59 36 51 55 33 25 25 35 52 95 94 97 99 98 98 98 98 98 98 98 92 96 94 99 98 98 99 87 79 93 90 90 86 78 70
89 84 80 75 70 69 66 24 15 28 40 54 51 41 42 48 39 37 46 50 93 95 95 98 97 99 99 97 98 95 99 97 93 97 98 98 98 99 96 97 99 96 90 92 91 89 59
73 79 76 73 69 70 74 27 19 20 33 51 49 52 33 35 42 42 46 49 86 99 100 100 98 100 97 94 97 96 99 96 96 94 98 98 98 99 99 99 97 87 87 71 64 64 50
60 72 70 64 59 61 64 70 26 15 25 42 53 53 45 37 29 36 40 49 69 86 92 96 96 84 97 96 91 96 96 99 96 79 90 96 98 99 99 99 100 99 96 76 54 50 46
58 68 62 56 56 53 57 64 70 26 14 28 43 52 51 42 42 34 41 62 82 82 94 92 87 89 88 99 93 94 88 92 88 83 84 93 96 98 98 98 97 99 92 81 66 64 43
66 64 56 55 61 65 66 62 63 67 25 18 33 43 48 49 52 42 49 74 87 84 76 96 95 94 89 88 86 83 87 80 75 76 73 86 85 99 93 95 90 82 86 71 71 55 35
62 53 58 64 62 66 64 63 65 63 52 16 24 37 49 55 49 56 57 74 77 82 77 73 97 94 84 87 84 80 83 88 80 80 80 68 94 97 99 85 88 90 77 71 70 64 58
55 53 58 62 57 58 61 64 65 65 66 28 17 32 44 57 66 60 66 70 77 72 75 82 93 84 84 86 84 86 74 60 73 80 83 70 82 94 97 86 81 87 87 80 71 56 67
54 54 54 56 56 58 60 62 66 64 65 42 15 37 41 62 64 76 76 74 72 69 65 66 73 75 82 84 78 85 74 66 64 74 72 65 64 82 66 75 81 78 70 74 70 71 58
58 56 52 58 61 63 64 63 66 64 66 58 20 36 48 66 88 77 75 77 74 70 67 66 68 68 84 81 80 83 87 72 72 74 73 67 61 55 55 59 64 71 69 67 74 62 62
63 54 49 56 59 63 62 63 64 66 77 54 25 17 50 70 77 83 92 100 80 71 67 65 74 64 65 77 77 81 89 89 84 72 81 78 68 61 59 54 57 58 66 74 70 68 77
60 57 48 53 61 63 65 66 65 72 78 72 28 20 35 66 88 93 98 98 96 75 70 65 66 71 79 66 69 72 82 89 84 89 91 93 82 68 81 70 74 76 52 56 59 55 68
75 63 48 53 63 61 63 66 70 74 74 76 44 27 15 66 89 96 94 91 80 82 95 72 71 80 69 71 72 78 72 74 71 68 87 97 95 86 84 79 79 67 65 65 68 57 55
83 70 53 57 62 64 63 70 74 76 80 78 81 54 35 23 65 96 98 96 92 93 88 86 83 81 80 88 99 98 97 97 96 90 92 95 88 91 82 72 68 59 68 78 67 62 49
87 88 64 60 65 65 68 74 79 79 81 81 74 73 63 40 49 55 100 98 97 98 91 97 97 94 95 96 99 92 83 81 92 89 91 83 93 93 94 78 59 91 80 79 76 95 72
74 87 77 63 67 69 72 78 83 84 82 74 56 31 40 48 52 48 80 98 98 99 98 91 96 98 93 89 97 93 83 88 87 83 97 99 99 96 88 80 70 73 86 90 96 99 91
78 89 84 72 71 72 74 84 86 88 89 50 27 21 26 30 32 84 51 100 99 99 95 92 91 95 94 89 96 96 90 88 87 83 85 89 88 87 87 90 78 65 94 96 99 95 99
77 80 66 76 73 74 78 89 87 55 22 29 26 51 55 40 19 26 84 72 98 99 97 93 97 92 98 100 91 94 96 98 83 80 82 87 84 79 80 81 76 70 97 86 89 94 99

GFSGBSN_700_rhum_060.txt.gz
RH
66 62 55 59 50 56 63 23 20 23 20 16 30 85 90 86 95 97 93 86 70 64 70 72 79 81 90 93 74 99 76 32 98 95 96 79 35 42 65 56 74 69 66 49 57 52 52
77 71 60 56 48 57 61 20 23 26 24 21 39 55 77 84 89 87 96 84 70 62 80 79 78 78 84 65 78 81 100 63 61 99 76 85 48 72 84 95 88 80 66 70 59 63 55
71 81 66 55 52 56 58 20 26 32 32 37 48 48 60 68 81 88 96 70 67 66 57 60 64 62 60 46 90 72 70 88 56 87 71 89 66 94 90 98 97 90 82 73 68 69 57
71 77 62 58 54 57 57 20 32 39 44 44 51 53 56 68 74 89 87 45 68 58 64 59 73 68 52 56 64 58 56 98 79 80 81 94 95 98 97 90 96 95 82 85 68 75 71
77 77 62 65 58 58 62 20 36 41 42 57 67 53 53 65 79 82 41 54 62 57 56 54 57 76 72 70 58 58 61 99 79 91 100 99 97 90 96 95 94 97 80 82 74 58 72
82 83 69 70 62 62 65 18 34 39 45 56 73 45 51 64 69 62 40 46 50 60 64 55 75 94 76 96 78 60 62 100 99 98 96 98 94 82 92 96 92 78 75 69 69 64 50
62 80 81 74 71 64 64 22 32 38 44 50 68 60 37 54 59 44 44 52 57 69 77 84 94 90 91 79 84 64 60 99 99 88 99 92 95 78 48 66 65 68 68 66 57 56 62
65 76 82 68 57 65 62 32 27 37 46 41 52 58 38 35 50 55 54 55 60 79 77 79 68 67 59 74 68 70 91 97 94 99 98 100 85 71 78 84 73 62 56 49 50 48 48
57 63 72 69 64 65 61 40 22 36 48 34 42 42 40 39 45 57 63 56 62 70 88 89 77 70 70 76 80 73 98 97 98 98 88 92 91 84 92 87 75 62 57 48 52 63 61
60 66 78 72 65 63 66 33 17 31 46 34 29 43 22 30 36 48 56 70 78 84 98 90 93 88 66 96 87 90 96 98 98 95 97 98 89 80 94 87 73 65 59 52 56 67 59
55 63 78 67 58 58 64 29 16 26 40 46 29 36 28 18 20 30 45 50 69 86 94 77 83 81 94 92 79 99 93 96 99 100 89 100 96 99 97 82 84 67 58 58 71 55 71
55 50 68 56 51 51 59 50 22 18 32 49 45 34 38 26 20 42 56 67 85 92 96 97 95 94 98 95 98 88 96 95 99 99 97 92 100 100 93 96 92 90 71 80 79 79 83
44 60 62 54 49 46 50 57 52 21 21 40 50 47 35 33 26 47 51 61 95 93 97 97 98 98 99 99 84 90 95 98 97 93 92 97 99 99 99 99 97 96 78 83 90 92 84
39 60 59 51 52 52 51 50 51 55 19 24 41 50 44 29 24 42 44 60 84 97 98 91 98 95 96 92 98 99 99 94 94 77 88 94 99 99 99 99 95 92 62 72 73 92 70
44 52 47 53 57 52 51 50 55 50 59 15 28 41 43 36 22 29 51 56 84 91 96 96 96 84 97 81 81 96 89 92 93 93 98 98 97 100 99 99 92 97 88 86 52 49 59
47 43 41 50 53 50 45 47 50 51 57 42 19 31 38 43 40 21 40 79 88 88 91 96 89 87 91 90 79 92 89 86 91 90 96 92 94 99 99 98 93 92 95 83 54 70 66
42 38 41 35 43 44 43 47 50 50 53 61 14 26 39 49 42 40 43 58 81 90 82 93 87 84 84 87 81 80 84 84 81 75 89 96 91 98 99 98 98 99 98 81 72 62 65
44 43 44 32 40 47 48 48 51 52 51 64 29 28 39 48 47 57 62 66 67 66 76 84 96 83 82 80 78 78 82 81 75 83 86 85 84 98 100 94 95 98 95 93 88 71 52
49 46 45 34 39 47 46 50 52 52 51 58 40 18 38 53 61 73 67 60 62 61 65 74 95 87 84 81 80 82 67 67 75 78 80 71 74 88 90 83 81 83 82 78 70 69 60
49 47 48 36 35 40 46 50 54 53 54 59 55 20 35 56 64 93 88 80 89 66 61 62 70 70 75 78 79 80 69 64 66 70 73 68 70 83 76 76 72 72 72 76 75 60 57
56 54 56 46 37 38 40 52 55 56 58 58 49 30 41 62 94 67 91 97 96 95 67 64 71 76 82 80 79 82 82 70 64 61 73 64 58 57 62 51 56 59 66 83 76 64 56
60 63 67 50 44 41 41 53 58 61 64 71 50 29 27 53 74 78 96 97 92 99 75 90 79 74 76 75 76 79 77 79 77 72 73 70 66 60 58 54 51 51 60 68 65 64 62
66 71 72 64 51 46 46 52 57 62 67 68 75 37 23 52 82 99 96 94 95 88 79 73 68 78 80 75 68 69 80 88 90 75 70 75 75 62 85 74 63 64 40 44 51 49 48
69 77 76 69 58 49 48 55 58 69 72 72 72 78 40 30 79 99 100 96 90 97 97 96 72 72 89 78 70 71 72 75 73 71 92 91 88 82 86 70 93 62 54 54 50 51 53
73 75 65 64 62 49 51 62 62 65 77 78 77 73 78 48 26 93 97 94 85 92 90 83 79 76 78 75 97 95 89 96 96 87 75 95 89 83 85 80 56 60 53 67 68 56 52
66 76 72 69 58 49 64 70 68 71 76 82 76 70 62 65 60 35 69 96 94 100 93 82 90 84 88 87 92 96 80 84 87 88 91 84 87 83 88 80 77 86 74 78 78 93 60
51 72 67 63 53 58 67 70 73 80 75 64 55 46 41 44 46 58 40 79 100 98 100 90 86 92 93 91 87 88 86 85 90 83 80 86 89 85 80 87 71 70 65 92 93 97 80
61 73 60 58 50 68 74 73 76 68 64 24 20 24 30 21 19 35 55 43 100 100 99 99 97 93 92 91 89 91 86 81 84 82 82 79 77 81 83 83 85 71 69 98 96 94 93
42 52 57 58 62 76 76 76 76 74 24 33 36 46 69 42 18 21 29 50 62 98 100 100 98 99 88 88 94 90 90 93 80 92 82 83 81 79 80 81 79 77 64 86 89 93 99

GFSGBSN_700_rhum_063.txt.gz
RH
53 64 71 65 66 50 60 23 28 37 25 25 46 54 36 55 58 71 78 94 95 84 68 59 66 79 82 89 60 97 99 56 30 40 72 78 45 35 43 60 59 58 76 63 64 67 72
65 78 80 67 68 47 58 21 30 38 38 48 60 42 30 49 63 74 79 96 81 70 66 83 82 70 69 64 71 94 87 76 42 67 76 91 74 37 66 80 72 48 65 67 70 62 62
70 71 77 69 70 54 61 27 30 37 38 45 59 43 36 51 61 71 86 81 47 66 70 62 63 60 64 82 80 83 97 99 83 99 99 94 83 44 58 92 74 86 67 89 69 66 60
64 56 67 67 65 55 62 42 28 37 35 41 45 41 32 40 51 50 34 40 53 64 67 56 55 56 52 64 58 86 94 96 100 100 100 99 78 79 84 90 96 87 74 85 74 69 64
63 69 59 47 45 58 60 57 25 36 33 40 36 38 34 36 47 37 37 54 57 55 53 49 48 54 70 56 61 56 59 94 100 100 100 96 89 97 97 94 90 96 86 82 79 75 59
59 53 46 51 58 58 58 61 22 34 33 36 30 26 35 36 40 41 36 41 44 51 52 55 63 85 86 77 72 59 56 80 98 87 99 95 94 88 94 94 83 82 82 63 70 76 71
44 46 45 54 59 54 61 56 21 34 38 31 40 24 30 37 43 40 40 41 51 62 61 66 74 77 76 74 73 69 52 82 98 92 99 98 96 80 50 80 79 77 81 74 65 69 69
29 36 38 54 50 48 61 31 18 30 41 31 38 29 26 34 48 57 67 54 50 55 64 70 71 72 58 56 64 62 58 68 98 96 98 99 81 73 70 80 79 74 67 68 63 66 63
29 25 39 47 43 43 56 37 15 24 40 39 32 36 27 29 35 41 47 65 75 72 83 94 81 70 66 65 55 59 65 74 96 98 99 93 98 80 73 87 73 70 68 61 62 59 67
31 21 44 46 44 42 42 55 38 17 31 44 44 36 36 33 29 46 52 71 71 82 94 98 99 84 76 98 80 46 71 85 88 98 99 99 90 83 85 72 60 72 65 59 60 66 71
29 25 46 50 38 41 42 41 46 45 17 36 48 48 40 32 31 48 58 72 78 92 96 90 94 96 99 98 77 97 97 88 84 94 76 92 78 84 86 84 84 75 65 62 56 62 60
22 28 49 42 42 46 44 47 48 44 44 18 39 47 48 28 31 41 55 61 67 80 96 96 89 97 100 87 98 99 98 98 99 98 91 98 95 90 97 74 85 80 76 66 68 70 80
16 34 43 35 44 43 36 40 49 48 48 32 23 41 41 37 27 37 46 49 60 93 95 98 98 98 91 96 94 97 98 94 92 85 98 100 99 98 97 90 92 88 84 87 88 91 88
24 32 31 33 32 31 30 32 44 48 42 60 16 32 40 42 28 26 40 40 73 90 96 100 98 89 91 98 99 99 99 95 76 63 90 99 100 100 98 94 97 93 69 65 85 98 83
30 28 32 32 30 32 33 28 36 46 41 48 34 22 42 46 36 24 42 39 84 90 88 89 69 67 74 95 99 97 98 90 86 74 61 90 98 99 99 98 96 98 85 74 65 60 66
30 31 32 33 26 31 32 31 32 44 44 38 53 18 34 46 43 37 42 56 76 86 78 84 97 82 93 91 86 89 94 98 86 90 75 91 94 95 98 99 98 93 82 77 75 62 76
32 31 31 37 28 27 26 27 29 40 45 39 56 16 33 47 46 49 56 66 68 72 79 82 84 89 95 95 81 84 85 92 88 93 87 83 91 100 100 99 98 97 93 79 72 68 66
29 31 34 41 38 30 30 25 30 42 46 47 55 18 30 48 71 78 80 77 65 67 81 93 85 94 82 83 78 80 81 75 80 96 98 94 91 98 98 97 95 84 88 80 74 71 54
31 35 41 42 45 36 35 28 27 38 42 48 58 33 34 48 93 90 78 81 82 69 67 75 82 78 79 80 77 80 69 77 77 77 78 74 88 95 98 98 97 99 92 88 87 78 64
30 36 44 47 52 47 42 37 25 38 44 46 54 36 44 62 62 99 94 94 98 80 72 67 67 75 78 81 80 71 65 70 76 76 74 72 70 72 68 63 68 86 93 93 92 92 72
20 30 45 47 54 54 47 36 26 41 45 50 57 42 36 66 73 74 98 98 97 98 71 75 76 81 83 80 78 78 72 67 66 67 72 68 60 70 70 60 57 61 72 85 81 73 63
27 34 42 47 60 56 50 38 31 45 48 52 60 60 28 32 78 82 94 97 96 97 86 77 85 70 75 75 75 78 73 66 69 64 69 70 60 55 53 51 51 50 53 63 70 71 69
17 29 36 54 53 55 47 31 40 52 53 57 64 68 64 32 78 94 95 87 90 97 88 81 83 75 74 75 74 69 67 73 84 80 66 67 66 62 71 72 62 48 34 37 45 45 50
11 25 43 45 58 56 46 42 49 56 57 60 63 70 68 58 38 98 95 98 95 94 94 100 78 79 82 82 70 67 68 82 87 81 72 65 72 70 78 72 90 54 55 50 49 39 51
11 19 25 39 45 53 45 47 58 62 64 63 65 68 67 67 62 38 96 100 100 100 95 86 84 78 90 82 80 85 81 87 77 72 93 95 83 83 81 83 52 49 53 57 58 52 48
12 25 36 38 38 41 48 59 59 60 64 59 24 20 43 56 60 70 38 48 97 100 98 92 88 83 85 87 92 91 78 77 84 89 88 96 96 82 85 87 87 82 72 76 76 77 67
18 34 46 47 45 48 56 60 57 63 38 15 18 18 19 17 22 41 61 44 87 96 97 97 93 97 97 97 96 94 77 74 80 75 80 90 95 88 74 85 69 72 68 87 89 78 54
8 20 42 50 48 48 53 58 60 60 17 37 43 41 31 15 24 24 34 60 48 98 89 98 98 98 97 98 96 92 89 79 82 80 74 76 77 78 78 86 82 72 71 96 94 92 79
6 11 30 42 44 46 49 60 59 44 32 59 64 64 67 70 59 39 19 22 54 78 89 97 99 100 98 96 96 96 95 89 80 89 87 79 77 78 77 72 70 75 72 70 90 98 97

GFSGBSN_700_rhum_066.txt.gz
RH
36 49 38 37 44 47 54 42 26 25 24 20 19 22 24 32 42 54 62 76 87 88 82 72 59 63 70 63 48 83 66 64 58 45 78 94 62 36 66 54 71 61 62 60 67 72 84
26 38 33 28 34 48 57 56 25 26 25 22 17 26 28 25 36 44 60 73 74 62 60 76 83 73 73 69 77 80 98 74 49 32 83 96 70 43 66 66 74 74 86 80 92 64 88
18 34 34 36 47 53 56 58 22 30 25 30 19 26 35 28 34 34 29 34 40 58 64 57 62 59 64 84 83 68 95 100 74 39 79 90 78 54 61 63 68 90 82 88 72 73 79
16 27 36 39 48 51 57 62 21 33 26 32 24 22 39 39 33 32 33 43 52 58 55 43 44 42 65 77 77 99 93 99 86 63 63 96 92 51 74 92 71 85 80 90 62 66 72
16 19 23 43 49 43 60 51 20 32 27 28 38 26 34 44 46 37 35 43 45 45 39 39 41 44 66 65 68 74 95 98 100 90 68 99 99 57 85 95 82 92 77 83 70 66 65
14 14 16 41 44 38 53 36 16 27 36 34 31 37 28 40 55 53 39 39 38 40 41 38 47 60 72 64 63 69 78 95 98 99 99 99 99 67 91 90 91 77 67 74 68 67 74
12 13 17 38 40 39 37 56 24 20 33 40 35 36 38 32 39 59 58 43 46 53 54 60 58 60 60 66 63 57 70 81 96 99 98 99 98 60 62 86 84 68 75 69 78 72 68
10 10 15 36 36 37 38 36 46 30 21 38 43 43 41 44 33 46 57 65 86 56 57 62 67 62 55 51 65 65 63 68 96 98 97 99 74 66 90 86 82 77 72 71 67 75 73
10 9 14 27 31 43 45 43 45 44 36 22 42 46 51 42 34 53 67 73 74 94 90 91 87 72 67 70 68 71 62 52 96 99 98 100 90 73 77 89 79 80 78 73 67 64 72
10 10 14 19 32 39 37 41 40 47 43 30 25 41 47 35 43 53 67 87 80 83 97 97 98 76 80 81 75 67 58 66 84 94 98 100 89 71 80 83 88 86 75 70 70 67 72
9 12 14 16 22 27 22 24 33 43 45 46 17 31 37 32 35 47 61 74 86 93 96 96 98 98 97 97 82 85 62 54 92 96 94 99 84 79 84 71 93 80 72 63 61 63 66
10 15 17 20 21 21 27 21 31 35 46 36 46 19 31 34 27 39 49 62 76 87 95 96 96 73 78 82 98 100 99 85 94 98 99 93 98 87 88 75 87 71 73 66 69 76 77
11 16 20 24 22 18 22 27 25 28 43 34 53 16 26 34 26 32 43 46 74 95 98 99 98 96 99 96 99 98 96 97 95 98 98 100 100 100 92 88 80 88 74 94 94 97 90
11 17 22 27 27 20 19 21 22 26 39 33 44 22 24 37 28 30 38 45 69 96 100 100 98 98 89 95 98 99 98 98 96 94 99 99 99 85 83 90 90 84 73 69 87 94 81
10 15 24 28 30 23 21 22 22 30 37 38 39 29 23 38 29 31 38 45 69 73 84 89 94 92 99 94 98 97 94 77 84 82 69 92 97 99 97 86 89 93 80 70 61 71 75
10 13 24 29 31 31 27 24 21 26 36 43 39 40 24 38 33 28 38 48 69 80 83 80 91 84 95 95 96 89 93 80 70 65 65 69 89 98 99 94 97 98 88 85 79 71 81
9 11 21 32 35 33 31 28 28 17 28 40 42 46 29 39 36 37 45 54 66 72 75 86 86 88 88 90 89 91 89 91 86 84 67 68 70 96 100 99 98 99 99 84 72 65 70
6 8 16 28 39 38 32 31 33 23 29 38 48 43 41 41 46 49 58 53 61 74 80 86 86 86 84 82 82 82 87 83 86 84 78 84 95 100 100 100 96 100 94 84 69 73 66
5 7 10 24 35 31 37 32 42 29 25 35 47 51 43 46 98 76 65 69 65 70 74 75 76 79 81 72 71 75 83 83 96 96 94 92 90 96 99 92 100 100 98 86 83 73 66
5 6 9 20 23 31 34 39 35 27 34 39 46 48 46 46 100 99 95 83 72 69 71 75 73 78 76 73 69 62 71 82 88 81 77 73 81 77 71 70 76 96 87 85 88 84 74
4 5 10 14 19 27 38 42 34 31 41 44 45 48 40 52 84 100 99 95 91 87 70 79 78 82 75 70 64 66 65 70 72 78 78 73 64 70 68 70 68 74 72 86 89 85 88
4 6 11 11 20 27 41 41 38 41 43 48 49 55 55 29 71 90 98 96 99 92 88 85 77 86 84 80 70 66 65 64 67 69 69 69 60 60 69 56 56 58 62 83 94 91 88
4 8 10 13 20 29 32 32 46 49 49 47 50 56 62 50 51 95 98 91 93 91 93 95 89 80 81 80 79 75 65 65 65 68 63 68 67 60 60 59 61 57 38 44 55 71 78
4 9 12 21 28 35 45 49 46 49 48 43 38 35 60 66 55 71 99 93 88 95 90 85 90 87 78 81 77 72 73 81 83 76 72 65 69 65 72 80 77 40 52 50 43 36 49
6 10 18 27 35 42 49 47 44 47 32 18 17 14 14 52 64 55 72 95 96 92 91 89 95 83 90 92 87 77 77 77 86 88 82 79 78 77 78 81 50 40 54 53 54 49 45
6 9 21 30 35 44 49 45 44 42 25 34 30 21 18 13 21 59 53 40 76 98 98 94 97 94 97 96 86 85 79 76 81 83 87 98 91 81 91 86 89 82 72 70 75 62 53
4 6 16 30 34 32 40 43 43 36 34 40 40 44 33 28 12 16 49 62 41 98 91 99 93 99 96 100 95 93 85 75 80 80 81 90 91 92 88 82 66 60 70 73 81 67 70
4 5 10 20 27 27 32 41 44 37 34 48 48 51 52 58 51 31 15 43 56 80 98 94 98 99 99 100 97 92 84 83 80 79 74 76 85 87 83 79 80 64 73 76 85 91 86
4 4 6 14 23 24 28 36 42 39 28 41 44 56 58 60 73 74 74 47 23 54 88 91 98 100 100 97 95 98 94 93 82 88 84 78 73 73 72 69 66 76 75 73 75 93 91

GFSGBSN_700_rhum_069.txt.gz
RH
10 9 10 17 26 33 44 53 52 28 24 25 17 24 34 33 28 23 27 36 70 84 76 75 71 62 50 51 57 78 65 82 78 39 78 95 73 38 57 71 66 80 94 96 95 97 87
12 10 8 17 28 28 40 56 48 28 27 25 27 21 33 37 39 24 26 26 38 54 57 70 72 66 61 65 68 70 94 99 78 48 51 98 76 46 50 64 75 66 88 84 84 87 100
10 11 8 16 27 30 34 53 20 25 30 29 25 32 27 38 44 31 29 31 30 52 69 58 56 57 58 61 66 62 82 94 77 54 48 98 87 52 56 72 74 87 87 87 79 85 98
9 10 9 15 30 32 32 47 23 18 28 37 30 35 35 32 44 45 32 35 43 50 54 46 46 45 55 56 66 76 58 98 62 58 46 100 96 55 78 82 74 79 98 96 68 89 97
8 9 9 14 28 30 27 32 43 35 19 32 42 38 40 38 40 49 36 36 38 42 37 39 43 52 61 63 60 68 78 98 98 88 55 96 99 60 80 80 72 89 82 81 75 85 82
8 8 8 14 24 27 33 37 42 42 45 20 37 46 49 44 44 44 53 44 40 39 44 45 46 68 89 85 79 68 88 96 98 70 100 98 99 68 91 83 82 67 76 61 62 54 66
8 8 8 12 21 26 36 35 37 43 45 46 22 43 49 48 44 48 58 57 67 51 53 55 60 65 79 89 78 78 85 97 96 92 97 94 99 70 47 80 82 65 83 72 59 67 58
7 7 9 11 16 22 25 28 27 35 46 43 33 32 44 39 44 56 70 71 80 67 66 54 59 55 60 73 65 71 82 90 95 96 99 100 96 84 68 90 77 77 86 80 73 79 73
7 7 9 11 16 17 18 24 17 28 39 48 50 20 38 37 39 55 74 84 74 86 92 92 97 58 46 56 72 73 60 65 93 98 99 98 98 81 78 89 79 88 69 76 74 79 84
6 7 10 12 16 15 16 23 20 24 36 45 44 26 31 36 34 47 67 79 84 85 96 98 82 64 64 55 66 78 66 80 88 89 99 99 95 81 88 89 85 95 86 73 75 76 81
5 7 11 12 14 15 15 18 19 22 31 44 40 47 23 34 29 37 52 72 85 90 95 96 99 95 92 87 75 74 60 69 89 98 98 98 92 82 80 88 87 81 84 84 74 73 71
5 7 11 14 14 15 16 19 19 21 30 43 34 53 19 33 32 36 44 65 72 85 98 98 85 99 98 90 97 73 87 76 94 98 99 98 92 87 83 83 84 81 80 71 68 68 83
4 8 11 14 15 12 18 20 24 17 35 42 29 51 19 33 33 32 38 50 73 95 90 95 100 95 97 98 99 100 70 74 93 98 99 98 97 88 83 74 83 83 81 93 92 92 91
4 8 10 14 16 13 13 21 27 18 25 40 31 48 19 35 32 39 38 43 79 96 92 97 98 98 99 98 89 83 69 75 93 97 99 98 99 99 92 73 83 95 84 74 86 96 85
4 7 8 11 17 17 11 16 26 26 16 33 41 45 23 30 32 35 42 43 70 86 93 88 91 96 97 99 98 100 100 73 58 92 90 93 100 99 97 81 69 85 92 75 61 74 80
4 6 6 8 14 16 8 12 24 28 18 31 46 48 31 29 32 34 49 53 66 79 84 83 87 95 96 86 95 95 98 99 87 97 74 72 88 100 98 84 87 86 82 86 72 81 89
4 5 4 6 10 10 7 10 17 27 23 32 43 49 42 32 38 38 49 61 66 74 76 84 90 96 90 95 87 88 94 90 94 86 73 71 76 100 98 92 95 96 92 85 76 67 72
4 5 3 5 6 7 5 8 19 20 28 32 42 44 57 38 46 50 57 60 68 72 79 89 90 86 84 85 82 84 87 85 86 82 73 63 65 99 100 96 92 100 99 96 75 81 72
4 4 3 4 5 5 5 8 28 22 29 35 38 48 53 41 58 57 64 69 73 76 78 85 86 84 81 76 74 76 79 80 87 86 85 81 93 98 99 97 99 99 99 100 89 74 67
4 3 2 4 4 4 7 14 28 27 32 37 37 45 49 46 56 62 69 74 72 71 77 75 77 85 83 75 69 62 73 78 85 82 80 82 84 79 74 66 79 97 97 99 96 90 77
4 2 3 3 4 8 10 17 29 36 34 36 39 43 49 46 77 93 80 80 82 84 76 84 78 85 81 76 69 67 71 76 85 82 78 80 78 81 74 66 73 80 64 87 100 91 84
2 2 3 3 6 9 14 34 37 36 35 38 40 47 52 45 51 79 98 85 83 84 85 85 84 83 80 79 67 68 71 72 80 78 82 81 69 66 75 67 72 80 74 87 90 90 87
2 2 3 4 8 9 22 36 35 33 26 20 18 21 43 56 45 86 98 95 89 86 91 90 89 86 87 82 80 76 69 68 67 69 73 75 71 63 59 58 60 52 36 44 56 62 63
2 3 3 6 8 14 27 35 34 30 25 26 24 18 14 40 61 66 83 92 94 86 82 88 91 90 83 86 83 77 70 70 78 80 80 69 66 69 67 81 80 38 39 39 36 35 37
3 3 4 6 8 16 25 32 34 29 28 32 29 23 18 12 31 62 62 91 94 89 84 86 95 89 90 96 90 81 74 73 78 85 85 79 74 72 73 83 54 35 42 45 53 39 41
3 3 4 8 11 12 20 28 33 30 28 34 37 42 44 26 13 17 60 60 93 88 87 85 90 93 89 97 90 88 73 76 83 86 87 91 89 85 87 85 86 74 64 68 72 58 51
2 3 6 8 8 11 16 23 29 31 28 34 39 45 50 52 59 21 21 62 56 44 72 91 96 98 97 99 95 94 83 76 77 82 84 91 95 94 94 91 67 57 65 72 79 66 70
3 3 4 6 7 9 11 18 26 31 29 31 34 45 53 56 72 63 57 21 33 57 66 96 100 99 98 96 99 92 86 83 80 77 76 75 86 86 89 92 78 67 77 75 79 87 87
3 3 4 4 4 5 8 19 30 32 30 28 33 44 54 56 74 79 83 79 60 35 55 94 99 100 100 93 93 96 91 95 84 83 81 80 74 74 68 68 65 71 78 78 74 73 88

GFSGBSN_700_rhum_075.txt.gz
RH
6 6 7 7 7 7 13 23 27 34 38 38 36 23 35 43 42 37 39 42 21 23 36 47 57 75 83 81 71 64 69 73 87 97 78 99 98 55 46 70 85 100 99 83 95 93 81
5 6 7 8 7 6 12 17 18 23 33 37 44 36 27 45 46 39 40 42 26 30 42 52 56 61 67 60 64 59 76 96 88 97 82 98 100 80 63 60 76 92 100 97 98 98 97
4 5 7 8 8 7 7 13 14 16 21 31 42 39 24 41 49 42 42 48 37 34 44 46 44 42 46 62 66 69 73 96 80 84 65 95 99 96 65 59 80 90 77 92 96 92 98
4 4 7 8 9 8 7 11 13 17 20 27 37 43 32 36 47 44 48 57 53 34 42 44 41 37 44 48 58 67 61 87 98 88 75 99 91 98 68 70 85 87 91 76 72 69 99
6 4 7 9 10 8 7 11 14 16 22 24 33 46 41 27 43 44 56 60 60 57 39 43 37 41 50 62 54 63 64 70 96 87 89 98 97 97 78 71 90 100 87 95 88 85 72
10 4 6 9 10 10 8 9 14 18 19 25 31 45 42 23 40 44 62 68 66 63 50 43 43 46 62 78 67 57 68 71 88 92 97 96 98 99 82 73 95 96 99 100 98 98 97
13 4 4 8 10 10 9 10 13 17 21 23 32 42 40 24 35 43 61 71 68 67 65 56 48 53 60 73 71 61 67 56 52 98 95 100 98 97 79 74 79 75 96 98 96 87 92
33 5 4 8 10 10 9 10 14 17 21 18 33 39 39 27 33 41 58 73 75 72 76 75 72 56 51 56 70 73 95 95 77 82 96 95 98 98 85 73 73 74 86 95 94 81 78
44 4 3 7 8 10 10 10 13 15 18 18 28 34 39 29 34 40 55 72 80 75 80 84 68 50 56 56 64 94 96 88 98 86 98 100 85 94 84 92 91 81 70 78 72 79 89
29 4 3 6 9 9 8 10 14 16 16 20 21 35 38 28 41 39 47 68 79 77 88 93 91 81 58 68 80 97 97 97 97 100 99 98 98 98 92 86 85 83 71 57 63 74 95
14 5 3 5 10 8 8 8 13 14 14 19 18 36 38 28 37 35 44 62 78 79 94 98 98 78 64 84 91 94 93 87 95 97 92 98 88 97 87 79 88 79 74 81 79 84 83
18 6 3 4 8 6 7 7 7 11 11 19 18 33 36 29 38 38 46 63 82 82 97 97 96 71 60 75 82 98 91 90 90 80 90 96 95 99 70 92 82 76 90 88 88 81 90
16 6 3 4 6 5 6 4 5 7 9 16 19 30 40 36 34 38 43 62 78 88 93 98 96 81 72 61 84 100 96 89 75 96 98 94 86 98 94 94 92 93 86 95 94 97 86
16 5 2 4 5 4 4 3 4 6 8 14 20 28 42 37 33 40 40 53 72 95 93 97 96 97 94 97 95 92 75 67 62 95 99 94 99 98 95 96 83 93 81 71 87 92 82
38 4 2 4 5 4 3 3 5 6 8 11 17 28 46 38 33 45 47 63 70 89 94 96 97 97 99 99 90 94 53 54 73 91 86 83 98 100 83 96 88 85 80 70 70 80 79
48 4 2 3 5 3 3 3 5 5 8 10 18 32 44 44 37 51 57 65 76 83 88 95 99 99 98 97 86 70 63 72 96 96 95 98 98 100 100 95 89 84 75 81 74 83 82
59 5 2 3 4 3 3 3 5 6 8 11 26 32 38 52 45 56 61 70 81 82 81 95 99 95 97 99 96 97 81 73 91 98 95 91 88 99 91 96 89 91 87 87 74 73 70
69 6 2 3 4 3 3 3 5 10 11 21 26 38 36 50 56 65 67 68 72 80 91 93 89 89 93 91 91 87 93 78 77 81 82 92 83 99 100 88 95 87 81 86 77 84 79
76 5 2 3 3 3 3 3 8 13 15 20 26 35 36 49 62 68 72 72 75 78 92 92 88 81 85 84 86 93 92 84 73 86 77 72 89 93 94 96 98 99 91 83 84 75 71
82 5 2 3 3 3 3 3 12 16 17 21 27 32 37 48 60 71 78 73 74 78 85 89 86 84 80 75 71 81 82 91 94 93 86 77 72 64 68 59 66 79 73 85 87 90 83
90 11 2 3 3 3 3 4 13 18 16 18 18 22 29 40 58 67 78 84 81 76 78 83 78 83 82 78 74 72 84 92 97 93 93 86 79 74 76 76 72 69 68 72 74 77 91
94 25 2 3 3 4 3 5 13 19 17 18 16 15 15 28 49 65 72 85 88 89 78 82 81 85 84 77 76 78 80 81 90 93 92 90 82 74 69 82 82 84 73 70 73 77 75
99 33 2 3 3 4 4 6 14 22 20 21 19 16 13 16 30 53 68 74 92 96 92 88 89 91 89 82 79 81 80 78 77 84 81 84 83 78 70 65 72 67 48 52 51 51 64
99 34 2 3 3 4 5 8 15 20 22 25 22 21 23 20 17 38 66 79 93 95 94 94 90 96 90 88 88 83 82 77 76 73 71 75 78 83 70 69 81 44 46 45 41 40 48
98 45 3 3 4 4 6 9 12 17 23 25 25 25 26 30 25 23 50 72 84 85 95 100 94 91 95 91 91 87 77 76 72 75 77 77 83 76 72 79 55 43 40 43 45 42 51
100 48 3 3 4 5 6 8 10 13 22 24 25 27 26 35 34 27 13 38 61 88 88 86 99 89 93 96 91 85 82 77 74 76 82 90 90 87 84 84 75 48 61 70 69 64 78
98 12 4 4 4 6 5 7 8 12 18 22 25 27 25 38 40 43 36 17 28 57 66 76 87 87 89 98 93 86 80 86 74 76 71 86 99 92 86 85 75 57 59 58 68 66 82
95 46 6 4 5 5 5 5 5 10 16 22 24 29 28 37 38 42 43 40 38 20 48 59 68 70 94 100 100 90 80 82 83 76 70 70 78 87 96 97 85 67 71 68 68 73 70
77 13 15 4 4 4 4 4 4 6 13 22 25 29 32 38 38 45 47 42 35 14 37 44 83 100 98 100 96 95 90 93 81 83 76 80 73 72 72 65 63 64 68 76 76 73 75

GFSGBSN_700_rhum_078.txt.gz
RH
6 4 4 6 8 8 8 8 10 13 14 18 27 39 39 25 37 36 37 41 51 34 24 38 48 53 56 74 78 63 61 52 84 86 94 98 89 88 94 95 78 82 99 96 98 91 84
14 4 4 5 8 8 8 8 11 13 15 17 21 35 42 33 33 37 40 46 53 44 34 42 42 39 46 60 60 59 55 52 99 98 96 99 97 95 100 99 85 80 85 92 90 84 87
47 8 4 5 7 10 8 10 11 15 17 18 21 32 42 42 28 40 45 51 57 56 36 46 37 35 36 48 58 57 47 72 99 98 94 98 91 90 91 91 93 85 90 84 88 98 98
93 21 8 5 7 10 9 10 13 14 18 17 26 33 41 42 26 41 48 59 62 61 42 47 43 36 38 43 51 58 58 78 98 97 91 97 96 97 70 71 74 88 93 98 92 92 83
100 50 21 5 7 9 10 10 13 18 18 20 22 38 39 43 25 40 47 64 65 67 58 43 46 42 44 54 56 60 81 76 96 93 81 99 98 98 70 76 93 97 72 73 92 92 94
100 48 46 8 6 8 10 11 14 19 18 19 17 36 36 40 26 38 47 67 66 68 64 52 48 43 53 64 61 59 74 81 91 96 76 99 98 98 94 89 75 84 75 82 86 90 89
74 20 54 12 6 7 10 11 14 20 18 19 18 31 30 41 25 42 48 68 69 69 72 64 66 49 53 53 60 57 82 68 91 98 85 98 97 96 96 81 67 85 87 92 97 92 87
53 85 63 17 5 7 9 9 12 19 19 18 20 24 33 42 25 42 46 64 75 70 76 80 63 50 48 45 53 61 85 72 71 97 97 98 96 94 98 97 84 82 83 79 96 83 94
52 95 56 12 4 6 8 7 9 16 20 14 19 21 33 41 25 40 44 62 75 74 76 87 77 53 48 51 54 81 90 98 55 94 99 97 97 96 86 85 81 79 72 79 78 86 100
65 86 53 8 4 6 6 5 6 11 20 13 18 20 34 41 28 37 45 60 71 74 84 94 82 65 55 56 82 97 98 99 66 92 99 92 99 100 94 91 77 87 84 84 72 84 70
66 72 35 8 3 6 5 4 4 8 15 11 15 21 35 37 25 36 42 58 72 76 82 95 90 74 63 70 93 97 99 99 88 92 90 94 91 94 91 95 86 75 63 80 78 67 78
73 69 33 7 3 5 5 3 3 5 12 10 14 20 34 36 28 36 42 63 80 79 95 92 88 68 64 76 90 100 100 97 99 87 87 98 94 98 98 85 78 60 74 87 84 76 71
71 69 39 6 3 5 5 3 3 4 10 11 13 19 35 39 31 35 41 62 78 94 91 100 86 77 66 76 97 97 97 86 95 96 98 99 96 98 89 97 96 83 79 86 86 85 60
77 72 46 5 2 4 4 3 2 5 8 12 13 20 31 40 35 35 42 56 87 91 94 94 95 87 94 95 96 99 100 75 73 74 85 98 98 96 92 85 89 87 68 62 61 62 49
78 73 52 5 2 4 4 3 2 4 8 11 12 22 32 42 38 36 43 61 76 90 88 92 100 98 97 88 90 94 99 77 74 83 92 85 97 96 88 94 94 92 88 65 68 71 62
83 76 55 5 2 3 4 3 3 5 9 12 15 21 33 42 44 40 48 61 80 89 96 99 86 91 96 96 97 87 68 68 77 74 88 83 98 98 93 96 94 91 85 73 67 74 57
87 80 58 5 2 3 3 3 3 7 12 14 18 23 29 50 45 48 53 68 83 86 93 98 90 98 84 89 85 88 89 84 96 99 86 87 90 99 92 96 92 87 88 80 71 66 46
89 87 64 5 2 3 3 3 3 8 13 20 17 28 28 46 54 50 59 67 75 86 98 97 96 93 95 84 78 81 87 92 97 94 95 87 86 99 99 93 91 93 91 81 70 72 73
94 87 78 6 2 3 3 4 4 10 15 16 17 22 32 44 61 58 60 68 80 90 96 93 92 88 88 87 91 80 83 93 90 96 89 88 93 97 98 92 86 94 88 80 87 78 87
96 94 89 12 2 4 4 5 5 11 15 15 16 21 29 45 52 62 65 73 77 85 93 88 87 86 82 79 81 87 88 96 85 95 87 77 72 76 69 64 73 80 64 71 75 91 72
98 93 94 35 2 4 5 6 6 11 15 16 14 16 19 34 51 56 69 79 79 79 82 89 82 79 80 74 73 77 82 94 90 92 88 81 79 71 69 68 63 62 65 66 71 66 80
91 100 99 67 2 3 6 6 6 12 15 15 13 16 14 19 38 53 65 78 83 81 78 80 79 80 76 73 65 75 80 88 86 89 94 88 82 76 72 73 78 77 74 70 69 68 90
100 100 100 91 3 3 8 5 6 10 14 16 16 17 16 17 25 43 61 65 74 87 83 82 84 88 87 79 72 76 83 83 84 88 87 84 82 79 81 70 73 73 50 61 60 54 52
100 100 100 87 6 4 6 3 6 8 15 18 18 18 23 18 16 28 49 62 69 90 91 88 92 92 90 90 86 86 84 76 72 75 82 83 79 83 80 72 76 51 43 45 45 41 40
100 100 100 94 8 10 9 3 5 7 13 19 20 19 24 21 17 17 35 54 64 88 93 93 96 94 92 92 92 89 87 83 78 75 78 78 80 79 81 77 61 44 46 47 43 44 43
100 99 100 98 9 8 6 4 5 7 12 18 19 20 20 25 26 21 14 20 39 62 82 91 100 89 93 97 96 87 81 82 86 80 81 87 88 86 82 80 57 45 54 61 60 68 62
98 100 100 73 8 4 4 4 5 6 8 14 20 20 23 26 30 29 30 21 18 25 55 81 89 99 95 94 94 85 77 78 77 83 74 92 99 97 88 82 76 58 60 59 66 67 68
99 100 99 26 6 4 4 4 4 5 8 12 20 23 25 27 32 35 34 35 31 23 20 46 81 92 96 89 92 89 88 73 71 68 66 68 82 92 96 91 80 57 64 64 64 64 69
99 100 75 33 8 5 4 3 4 4 9 16 20 25 28 28 33 37 40 39 34 23 12 25 68 84 86 89 88 92 91 86 79 82 72 82 73 80 70 71 60 60 61 64 67 71 71

GFSGBSN_700_rhum_081.txt.gz
RH
81 20 31 7 6 7 10 12 12 14 15 15 14 20 27 43 40 28 37 39 48 54 44 28 33 32 38 51 91 79 66 64 67 89 94 84 87 84 98 91 90 92 82 79 93 93 91
89 90 60 36 6 7 9 13 14 16 17 17 16 21 31 44 45 27 39 42 53 56 50 34 36 30 28 88 53 59 63 63 68 96 98 86 97 97 97 84 80 92 92 82 88 87 80
82 99 94 98 9 7 8 13 13 14 17 17 18 17 35 43 46 27 39 46 58 60 58 39 41 34 28 38 38 52 56 56 56 97 92 96 93 98 86 84 82 95 83 90 94 92 87
100 85 66 92 10 7 8 11 14 15 18 20 18 17 34 39 45 27 39 48 63 63 64 49 46 42 70 37 38 45 56 57 70 96 98 96 98 98 92 84 94 83 88 93 97 99 90
88 88 96 68 11 13 7 10 13 15 18 20 17 19 31 35 45 26 41 52 66 64 63 56 48 48 94 48 48 46 54 68 61 95 98 97 98 99 93 87 88 93 78 73 89 100 85
99 90 84 35 17 12 6 9 11 14 16 18 16 20 27 33 45 26 40 54 66 66 65 54 48 55 56 79 61 60 51 60 69 89 97 98 98 99 95 81 75 73 56 61 75 90 99
99 88 75 35 28 18 5 9 9 11 14 14 16 21 25 33 41 32 40 61 67 68 71 75 63 60 54 44 54 61 65 67 75 99 97 97 94 98 89 67 49 49 50 46 50 90 96
99 86 79 33 19 15 4 7 8 8 10 12 13 20 25 35 34 36 37 59 74 69 74 80 76 54 40 42 51 67 64 72 86 98 97 96 96 98 86 70 79 61 76 77 77 85 85
98 89 82 45 32 16 4 6 6 6 7 11 12 19 25 35 34 36 41 60 78 73 83 89 66 51 46 49 84 58 73 80 81 99 91 94 91 97 99 82 83 70 63 69 70 86 91
98 96 79 54 32 10 3 5 5 5 6 10 12 17 25 33 34 36 44 59 74 74 98 95 79 74 57 72 96 77 87 78 81 98 87 92 96 88 91 73 59 64 61 66 75 86 72
98 96 80 66 32 9 3 5 5 4 5 9 12 15 22 36 32 38 43 67 70 75 82 91 76 59 66 85 96 99 96 87 75 97 94 88 94 93 91 78 73 60 67 67 71 69 51
100 91 84 69 42 6 3 4 4 4 4 8 11 17 22 36 31 38 46 70 74 91 92 90 60 61 99 89 98 99 98 97 92 98 96 91 97 98 98 85 93 71 82 75 69 61 63
100 92 86 74 55 5 3 4 4 3 5 9 11 18 24 37 32 37 52 70 94 93 90 83 75 81 73 92 95 96 97 96 92 96 99 99 98 93 95 84 74 78 71 71 73 77 55
97 95 84 76 62 5 3 4 3 3 5 10 14 20 25 32 34 39 58 69 96 95 98 89 85 82 100 90 85 69 78 93 85 97 97 97 96 98 99 94 90 70 60 53 54 52 42
100 93 84 80 62 4 3 4 3 3 6 14 16 20 27 28 38 38 51 100 81 83 92 94 90 98 90 76 94 98 94 97 94 85 92 96 98 92 98 92 89 82 67 72 63 56 48
100 94 89 84 60 4 2 4 3 4 9 16 20 18 24 34 39 44 53 82 82 87 91 91 98 93 82 97 80 97 92 62 65 74 75 98 95 94 98 85 86 92 81 60 68 65 44
100 98 94 86 51 4 2 4 3 4 11 17 20 19 25 32 43 46 73 83 87 87 93 83 99 78 77 87 85 81 81 63 64 70 74 98 92 99 97 88 93 86 93 79 68 60 43
100 100 100 93 42 3 3 4 4 4 14 18 18 19 25 32 48 52 97 76 74 91 86 87 84 97 96 98 90 86 92 90 87 79 94 82 98 99 98 100 90 99 79 74 71 61 54
100 100 99 99 40 4 3 4 4 5 14 14 16 16 24 33 53 67 64 76 80 93 90 90 87 77 76 94 88 94 100 79 85 94 92 90 97 96 97 97 91 84 90 86 72 70 74
100 100 100 99 58 8 3 4 5 6 13 14 15 15 21 32 44 59 73 81 81 87 90 87 86 82 76 73 78 97 88 84 84 85 85 87 92 86 72 74 77 86 84 87 89 90 68
100 100 100 100 72 20 3 4 6 8 12 14 14 15 16 24 40 52 62 88 92 84 83 86 88 89 89 84 86 94 93 84 80 89 88 83 88 77 66 65 57 65 77 86 95 76 76
100 100 100 99 98 33 4 4 9 7 13 15 14 15 14 15 26 47 56 81 100 77 71 86 93 84 83 85 82 91 96 99 96 93 97 87 90 77 74 73 68 68 67 66 85 89 92
99 100 100 100 100 26 4 7 8 7 11 13 14 15 17 15 22 45 75 76 75 84 78 73 75 84 86 76 69 68 78 86 91 97 97 96 97 81 76 71 78 73 45 50 66 83 81
100 100 100 99 100 20 5 6 8 6 11 15 14 15 19 15 16 30 31 48 64 84 86 78 80 85 80 81 80 76 75 74 73 78 88 93 91 89 79 78 71 53 48 43 50 70 77
100 100 100 100 100 53 8 31 13 8 10 15 14 16 20 17 14 12 21 36 58 83 91 77 81 80 84 87 93 90 88 79 73 66 66 71 83 77 75 64 57 53 46 42 43 41 44
99 100 100 100 100 64 50 64 12 8 9 15 14 16 22 20 17 13 12 18 49 85 94 81 75 85 89 92 97 81 72 72 83 84 75 77 77 84 82 70 58 57 43 50 50 53 50
99 96 100 100 100 33 58 56 19 7 9 14 15 17 22 22 20 20 22 19 18 41 86 72 79 89 86 94 95 83 65 79 70 74 93 97 98 94 83 81 66 66 59 57 66 71 66
100 100 98 98 100 87 36 47 22 8 9 14 16 19 22 23 25 25 27 29 27 24 37 44 87 90 92 95 93 93 78 76 75 69 80 76 75 75 76 76 75 57 58 64 71 68 62
100 100 99 100 99 49 10 8 8 7 8 14 19 20 23 26 26 30 30 31 30 28 22 30 57 60 76 88 86 86 93 89 75 70 74 81 70 65 70 67 71 60 60 65 64 61 65

GFSGBSN_700_rhum_084.txt.gz
RH
96 100 79 76 76 80 19 8 9 12 14 16 16 15 17 29 41 44 30 31 40 51 56 55 33 33 27 39 97 64 84 82 64 69 81 98 77 98 86 61 81 93 89 79 78 96 77
96 97 100 99 71 98 33 9 9 10 14 16 18 15 17 24 39 42 32 29 43 57 59 58 39 36 32 82 74 45 57 63 63 63 79 95 90 83 87 92 94 91 75 84 72 97 100
87 97 98 100 78 82 35 15 9 10 13 16 19 16 16 23 36 39 30 31 43 61 61 61 46 44 39 81 46 38 52 54 60 92 88 95 98 96 97 90 85 85 75 92 89 84 97
95 100 100 97 99 97 45 25 9 10 12 14 18 13 16 23 32 40 25 40 50 64 63 60 51 48 49 62 48 42 66 97 61 75 98 88 95 98 92 97 74 96 78 73 71 91 92
99 99 100 100 93 87 42 31 11 8 11 14 15 10 16 24 32 40 27 42 58 64 60 59 47 48 92 63 58 55 52 58 56 62 97 97 97 97 86 97 91 88 87 76 74 83 79
84 100 100 100 93 76 47 33 8 7 10 12 13 10 17 27 33 33 36 42 62 65 65 67 69 62 84 92 54 57 58 65 80 55 95 99 97 97 83 99 92 86 83 73 79 69 91
88 95 100 100 88 78 34 50 9 6 8 9 9 10 17 29 35 30 37 46 66 73 71 81 73 67 99 44 38 44 52 58 86 71 94 98 95 90 95 70 74 69 61 66 72 70 88
99 99 100 100 95 83 58 47 7 6 7 8 7 11 18 31 35 33 36 49 69 70 79 90 66 50 42 41 45 79 60 73 86 94 97 98 97 99 98 88 66 64 58 73 65 74 75
100 100 99 100 99 81 60 33 6 6 6 6 6 11 18 31 32 34 36 51 74 72 94 97 69 57 52 68 91 82 68 80 93 95 98 98 99 84 89 94 91 75 61 94 88 93 83
100 100 95 100 100 77 76 24 5 6 6 5 7 12 19 32 33 30 36 60 70 72 97 99 100 72 67 87 99 88 82 82 97 94 97 97 97 88 88 81 74 78 59 66 72 66 66
100 100 100 100 100 83 83 25 4 6 5 4 8 13 21 34 32 32 40 67 68 81 91 96 80 70 83 94 95 97 85 86 89 85 81 96 95 99 98 96 86 78 64 67 68 69 71
100 100 99 100 100 88 83 24 4 6 4 4 10 16 23 34 31 34 46 68 73 98 92 84 74 93 98 89 100 94 100 94 96 83 97 98 81 71 79 91 82 96 76 75 71 66 68
100 99 100 100 100 86 82 25 3 6 4 4 12 19 23 32 32 34 50 67 92 87 83 78 85 99 95 94 97 99 80 84 98 94 99 92 89 74 87 84 72 75 68 74 82 84 78
100 100 100 100 100 88 81 23 3 5 4 6 13 20 26 28 36 37 55 66 87 94 97 77 79 90 97 92 80 82 86 92 92 82 92 89 95 88 87 90 79 79 55 62 65 77 62
99 99 100 100 100 89 82 16 3 5 5 9 15 20 25 33 39 40 52 96 87 80 80 84 88 96 84 61 75 91 92 70 80 84 91 86 97 100 84 87 79 74 71 70 65 51 60
99 100 99 100 100 89 85 11 4 4 5 11 17 20 25 36 38 45 46 69 77 84 96 84 99 90 80 63 77 81 88 68 67 70 86 91 85 95 95 84 80 78 79 62 59 73 48
99 98 100 100 100 96 81 7 5 4 6 12 16 18 26 37 42 46 74 79 78 87 82 96 87 80 73 69 71 81 83 77 62 63 70 88 87 94 97 92 85 85 88 75 62 59 70
100 99 100 100 100 100 57 4 5 4 8 14 15 16 26 35 46 51 95 65 63 83 90 86 84 83 83 82 81 84 83 82 84 73 81 85 83 93 92 76 79 77 81 76 71 67 55
100 99 100 100 100 100 31 4 5 5 9 14 15 15 26 32 49 66 64 67 68 81 88 86 87 86 87 88 88 89 89 76 79 81 90 94 88 84 90 86 77 88 79 83 77 71 68
98 100 100 100 100 99 26 6 5 6 11 14 14 14 21 31 43 89 75 68 73 78 82 80 85 77 80 84 82 87 81 72 77 85 84 83 89 80 86 84 83 82 70 72 82 85 76
100 100 99 100 100 99 40 16 5 7 11 14 14 14 15 21 36 51 92 88 90 84 84 81 77 81 85 80 88 93 95 79 78 83 84 82 83 86 80 71 68 74 68 83 84 75 87
99 98 99 100 100 100 73 28 6 8 12 14 14 14 15 16 22 43 73 84 97 85 83 88 90 74 74 84 82 90 94 88 83 80 88 84 90 80 73 70 69 65 64 62 71 77 88
97 98 100 100 100 100 97 13 6 9 13 15 15 16 18 15 21 45 67 100 100 82 76 98 93 86 83 71 70 72 81 88 97 95 85 93 88 83 83 79 70 65 46 45 48 57 61
99 99 100 100 100 100 98 12 8 12 12 16 15 18 20 16 18 43 85 65 63 69 66 72 83 98 78 73 69 68 76 80 87 89 92 92 93 93 84 78 85 51 53 52 49 47 54
98 90 99 100 100 100 97 13 9 10 12 14 18 19 20 16 16 24 38 44 48 66 72 70 74 76 79 80 78 81 79 78 72 70 74 90 89 87 79 75 63 51 55 53 48 37 43
100 100 100 100 100 100 98 62 47 13 12 14 20 19 21 18 14 13 19 28 48 62 75 73 77 85 85 87 90 87 81 77 88 70 65 71 75 82 82 82 70 56 57 54 46 44 54
97 99 100 100 100 100 99 61 98 16 13 14 19 20 21 22 18 15 15 20 24 45 71 74 86 89 88 85 93 83 77 76 64 74 74 79 84 82 84 88 78 65 63 63 63 71 75
94 99 99 100 100 100 99 97 62 11 12 14 18 19 22 22 21 20 22 22 22 27 39 44 80 89 88 94 86 81 82 79 68 62 73 82 84 81 81 88 86 66 65 58 69 75 72
98 99 99 100 100 100 99 100 74 18 11 12 17 20 25 25 23 25 26 26 28 30 29 33 53 69 82 86 92 80 84 83 73 71 72 72 68 65 68 69 75 71 73 66 66 67 71

GFSGBSN_700_rhum_087.txt.gz
RH
90 85 87 95 90 98 90 83 57 27 11 12 12 12 14 13 16 29 33 39 28 38 50 58 58 44 33 32 47 49 65 77 92 95 91 85 97 100 74 66 90 95 99 90 96 98 99
97 89 84 89 100 100 97 97 99 37 20 11 12 11 13 13 17 28 34 38 28 44 58 60 58 49 40 39 60 52 51 63 93 90 89 84 94 95 95 84 85 74 96 82 100 88 98
98 99 94 90 90 100 100 98 99 42 20 11 11 9 12 14 18 28 40 29 40 53 62 59 57 48 47 50 70 48 57 99 66 56 95 94 97 98 99 96 78 84 82 91 93 83 100
99 97 100 94 97 99 99 99 88 50 28 11 10 7 11 14 19 30 39 32 44 60 63 59 53 42 45 75 62 56 62 56 68 55 95 94 97 96 99 95 72 94 85 92 88 90 98
100 100 98 100 98 100 99 93 81 40 34 10 10 6 9 15 24 34 32 41 48 61 61 65 51 49 65 79 80 60 58 63 58 54 86 99 93 98 98 82 87 96 79 79 82 70 92
94 100 98 99 90 100 100 92 98 62 34 10 10 6 8 14 29 36 32 41 52 64 65 68 66 68 85 89 61 57 46 58 78 76 71 97 85 90 98 98 85 92 69 86 66 75 98
98 96 99 100 100 100 100 100 98 60 42 9 9 6 8 14 31 34 37 44 58 65 68 64 58 68 58 45 45 42 55 58 86 76 86 98 96 93 97 73 86 75 55 76 75 68 94
94 100 96 100 100 100 99 100 99 54 36 8 8 6 8 14 31 33 37 46 61 63 74 79 61 50 52 73 68 60 62 70 92 91 96 99 96 90 99 91 88 72 70 74 71 72 71
96 72 94 90 100 100 100 100 92 63 28 7 7 6 9 17 30 33 37 49 60 67 86 95 71 66 83 94 97 68 56 73 83 96 98 99 93 92 93 84 90 74 74 69 79 91 88
95 100 99 96 100 99 100 100 90 74 26 7 6 8 11 19 31 32 36 58 58 69 97 98 80 91 95 98 86 70 76 88 96 98 98 98 99 97 94 77 73 77 71 52 62 80 96
99 100 98 100 94 94 100 100 98 83 21 7 6 10 14 23 31 31 41 55 63 80 90 81 72 85 93 91 78 77 99 84 92 96 97 99 99 90 87 82 85 67 66 66 94 92 93
98 95 96 97 82 99 100 100 99 89 12 7 6 12 15 26 33 33 46 58 68 85 93 65 79 94 96 97 95 97 98 85 96 92 98 95 88 90 98 95 91 76 87 79 93 80 70
92 99 100 91 81 100 100 100 99 88 8 7 8 14 16 23 34 33 48 60 70 80 84 60 80 99 96 100 92 77 92 86 81 75 93 93 98 100 91 90 94 92 77 94 87 80 78
99 99 98 99 86 99 100 100 100 79 6 6 12 16 18 21 36 36 49 62 72 76 87 63 68 76 75 93 88 82 88 90 79 74 76 79 73 85 84 88 93 91 70 62 83 90 66
98 86 95 100 94 100 100 100 100 53 6 6 15 17 21 29 37 36 48 62 63 69 79 79 55 61 59 69 80 91 70 76 81 85 82 83 98 78 88 76 77 78 74 70 65 57 62
93 97 99 100 98 99 100 100 100 24 7 6 17 17 21 32 37 40 45 48 72 77 86 99 94 71 47 69 78 83 69 62 66 80 79 87 96 98 80 70 75 75 76 64 58 68 58
97 98 99 99 99 100 100 100 99 10 7 8 18 16 22 34 39 41 43 57 70 79 71 100 87 75 48 67 78 84 81 55 57 62 83 90 82 98 83 76 70 71 77 68 65 62 71
98 98 98 100 100 100 100 100 82 6 6 11 17 17 23 35 40 38 52 55 59 75 79 79 84 82 82 61 81 86 81 81 76 62 75 84 81 98 93 83 79 75 75 76 68 64 59
100 98 99 99 100 100 100 100 29 7 7 16 14 16 24 37 42 36 55 69 60 68 80 79 86 84 88 89 89 88 84 71 81 71 73 79 81 94 97 84 73 71 68 77 79 72 68
98 99 99 99 100 100 100 96 8 8 8 14 14 17 24 35 43 39 51 65 65 70 70 74 74 81 87 85 87 86 86 76 84 81 77 75 73 80 72 78 77 74 60 71 89 79 65
98 97 99 99 99 100 100 59 10 7 10 13 14 15 17 26 39 38 52 60 71 73 72 74 72 79 87 82 89 87 90 79 83 89 86 80 77 75 86 82 76 85 74 70 80 70 80
96 98 98 99 99 99 100 57 81 7 11 13 15 16 17 19 37 50 57 66 66 76 74 72 69 75 81 84 83 92 78 75 93 87 86 84 87 81 73 73 69 68 64 61 59 62 81
84 98 99 94 99 99 100 88 85 7 13 14 15 16 18 18 28 44 47 77 87 77 75 75 72 74 75 80 84 84 80 83 90 92 91 95 94 91 82 82 80 69 49 52 52 54 57
98 96 99 99 99 99 100 98 45 10 14 18 19 18 19 16 22 29 53 69 100 76 70 63 75 74 67 73 74 71 74 87 91 92 93 90 86 88 84 80 87 55 55 54 53 48 48
97 96 99 97 99 99 100 100 11 12 16 19 20 18 20 18 18 28 63 57 67 76 69 66 68 80 73 75 75 77 74 69 69 72 88 80 85 83 82 82 66 50 55 55 52 44 39
92 96 99 98 99 99 100 85 17 29 18 20 22 20 20 20 16 23 40 35 50 63 70 68 72 77 82 85 80 86 78 80 84 78 68 69 75 87 85 86 81 65 64 67 65 56 56
80 97 99 99 98 99 100 96 75 17 21 18 21 20 20 20 17 13 14 22 31 47 55 66 72 79 84 86 84 84 84 81 74 74 72 71 74 79 84 92 78 67 68 69 65 65 78
68 95 99 98 99 99 100 100 99 23 17 16 21 20 20 23 18 16 16 20 21 27 30 46 74 77 83 86 84 78 86 77 70 67 72 72 75 76 83 86 85 76 78 75 71 66 65
82 94 99 99 100 99 100 100 99 36 18 15 20 20 23 23 20 22 23 22 23 30 33 36 43 58 73 80 77 77 87 82 75 64 68 71 71 69 77 79 81 82 86 96 84 84 84

GFSGBSN_700_rhum_090.txt.gz
RH
99 98 99 100 100 100 100 99 100 100 82 66 19 8 10 9 10 13 25 31 41 29 38 53 61 58 50 40 35 38 38 27 46 86 86 95 85 92 97 80 92 92 92 98 100 83 72
84 100 99 98 100 100 100 100 100 99 98 60 30 8 9 8 10 16 26 38 33 36 47 63 62 56 48 42 46 52 38 40 84 94 96 90 73 82 98 84 89 72 94 97 99 100 83
56 81 96 99 98 100 99 100 99 100 99 69 38 10 9 8 11 18 28 39 32 44 60 64 60 55 45 45 54 46 43 52 73 80 85 96 89 97 99 76 66 89 88 76 99 100 100
57 56 82 91 100 100 98 99 100 100 98 98 58 11 9 8 12 23 33 33 36 52 64 63 62 47 42 40 50 65 55 58 66 73 73 94 98 92 98 88 72 98 95 97 97 99 99
92 100 69 89 97 100 100 99 100 100 100 100 61 14 9 8 12 26 33 33 39 60 65 68 55 54 56 58 74 56 52 55 77 81 84 91 96 97 100 99 84 100 91 91 99 98 100
4 70 100 81 88 100 100 100 99 100 99 100 69 18 9 9 14 28 31 35 49 66 68 61 52 55 57 53 61 50 47 52 89 87 89 89 95 96 99 97 94 97 87 88 96 99 99
2 2 82 100 75 88 100 97 100 100 100 100 64 18 8 9 16 28 30 38 58 71 74 62 44 45 46 55 62 46 57 62 97 100 88 95 88 81 95 98 82 75 78 76 77 82 88
2 2 7 95 100 90 97 100 100 100 100 100 65 16 8 9 19 26 30 40 65 72 73 60 58 60 78 87 95 85 61 87 96 96 99 93 67 92 97 99 93 83 63 76 84 74 72
7 3 2 26 99 92 100 91 100 96 100 100 75 16 7 12 22 26 30 50 62 66 66 61 64 84 95 93 81 64 64 87 96 97 99 94 73 88 98 99 91 78 60 66 88 99 94
13 6 4 3 86 99 94 98 100 100 100 100 94 16 8 15 24 24 33 56 62 68 72 48 71 92 92 72 74 62 92 97 97 98 98 86 82 79 98 94 74 83 68 69 77 91 99
21 11 11 4 40 92 99 100 99 97 100 99 99 12 10 16 24 27 39 53 69 74 71 51 75 82 84 76 79 89 90 94 98 100 99 99 92 97 100 88 77 68 75 73 73 88 99
47 45 48 17 36 94 99 100 92 99 100 100 96 10 13 20 23 26 46 58 69 64 80 62 79 83 80 88 97 88 97 97 98 100 100 99 99 99 91 84 73 77 86 92 84 99 95
57 57 65 70 46 90 98 100 98 99 100 100 84 10 16 21 23 29 54 59 58 67 48 57 81 96 92 93 94 85 81 88 92 93 95 100 94 100 79 81 89 72 79 98 98 97 77
88 69 70 100 74 91 100 100 98 100 100 100 51 11 19 21 28 37 53 61 54 50 53 62 73 77 84 80 75 88 84 90 79 77 88 95 98 97 99 90 98 87 86 70 90 89 68
95 95 100 99 100 98 99 100 100 99 100 100 24 14 20 21 30 44 54 58 37 34 43 60 64 55 54 71 77 78 77 84 85 72 73 66 95 95 98 98 96 87 87 68 59 63 60
95 96 99 95 97 98 99 100 100 100 100 98 12 18 24 24 32 48 50 54 50 59 36 54 76 57 67 67 78 76 70 66 84 73 68 66 79 83 84 93 90 75 67 60 58 70 64
95 97 97 95 99 97 99 100 100 100 100 62 12 22 24 29 36 50 52 57 59 55 49 60 85 55 71 80 83 87 80 59 65 83 70 71 67 78 76 73 78 78 69 64 63 63 65
95 97 99 100 92 94 99 100 100 100 100 18 14 22 26 33 44 49 46 57 66 57 60 61 75 54 68 79 81 76 75 80 69 66 93 88 83 97 83 79 69 70 71 69 59 64 62
90 98 97 89 88 99 99 100 100 100 61 13 17 20 29 37 45 38 50 63 71 58 62 60 74 82 78 84 81 86 77 68 69 55 74 78 86 93 79 80 77 71 67 72 68 78 74
83 97 97 98 98 99 99 100 100 97 14 13 23 25 30 42 46 43 41 53 70 75 62 57 58 78 74 88 83 77 76 69 74 70 69 71 74 73 80 80 78 69 60 66 79 83 68
74 97 98 99 95 99 99 100 100 41 10 17 20 20 18 26 39 38 43 44 61 69 77 77 70 75 82 80 84 84 79 71 77 82 80 76 76 78 80 81 81 74 81 65 63 65 81
64 97 98 97 98 99 99 100 81 11 11 23 18 19 17 23 46 46 46 46 54 65 69 75 77 79 76 70 75 77 79 73 80 82 78 79 78 73 69 71 74 71 66 66 73 73 74
80 97 97 99 99 98 99 100 20 23 12 25 20 20 18 27 45 52 43 44 51 58 69 72 77 72 80 78 80 78 80 79 84 84 80 79 74 70 72 78 76 64 59 60 58 57 56
94 97 89 97 98 98 99 99 89 38 24 28 23 21 16 20 38 48 55 54 52 62 59 72 74 72 66 71 75 83 86 92 86 88 86 81 83 82 83 81 86 60 58 52 55 54 50
94 97 97 96 99 99 99 99 94 52 30 30 27 25 21 19 30 48 64 66 72 62 73 76 74 74 71 70 72 74 85 85 80 82 89 91 92 80 83 84 65 58 61 60 59 48 43
84 95 98 96 98 98 99 100 68 28 34 28 27 26 24 20 31 43 59 57 53 61 70 79 79 84 75 79 73 70 72 73 77 75 74 80 94 94 87 86 82 60 61 62 65 56 59
54 73 94 95 98 99 99 99 32 31 31 29 28 25 26 26 24 30 48 46 52 53 64 68 75 84 80 74 76 76 80 78 73 69 69 70 73 80 89 88 76 62 70 71 72 61 64
43 81 94 92 98 98 99 95 23 38 29 29 28 25 28 28 20 21 25 34 31 40 42 57 80 82 83 82 82 77 78 80 73 70 73 70 67 73 86 89 81 80 80 83 80 77 81
41 80 83 95 98 98 99 97 91 78 25 28 29 28 28 28 18 18 19 27 33 36 41 43 52 63 74 77 74 69 80 79 71 68 68 75 73 74 77 79 84 83 85 86 90 86 79

GFSGBSN_700_rhum_093.txt.gz
RH
7 14 43 80 94 94 97 100 92 99 100 100 100 97 80 17 12 12 16 24 30 38 28 32 48 61 58 52 43 38 38 40 30 38 57 75 55 94 89 78 77 79 80 60 100 89 98
3 5 14 46 70 94 95 83 100 78 100 100 100 99 91 51 13 13 17 28 36 31 35 42 62 60 58 45 39 36 40 36 49 76 92 95 81 75 83 85 81 72 74 89 86 99 99
2 2 3 16 40 76 92 99 91 95 100 100 100 100 97 75 16 13 20 34 34 33 40 60 62 62 50 44 37 42 40 44 60 79 94 98 96 96 73 70 86 90 87 96 88 98 100
2 2 2 2 50 48 90 90 96 100 100 97 100 100 98 94 19 14 26 38 32 36 55 64 62 56 54 48 54 49 43 51 69 83 83 76 99 85 76 84 86 88 100 90 97 98 98
2 2 2 2 4 86 66 88 100 91 98 100 99 100 98 85 21 16 31 36 33 45 65 62 49 48 62 54 50 59 48 42 59 98 89 94 97 91 83 99 96 80 96 79 94 94 99
4 3 2 2 2 16 95 75 97 100 98 97 100 100 100 76 23 17 33 35 37 60 66 54 52 50 54 49 61 43 43 48 64 89 95 95 97 96 86 99 96 86 98 93 87 97 98
8 8 5 3 2 2 24 99 76 99 100 94 100 100 100 77 21 19 33 35 43 64 60 47 61 62 74 76 74 46 52 69 77 93 99 99 99 92 97 90 93 72 84 88 98 99 97
11 11 13 10 6 4 2 58 86 87 100 95 100 100 100 86 19 24 33 34 57 61 44 60 66 76 81 77 52 54 46 76 94 96 99 99 96 93 97 99 88 73 79 79 99 93 93
14 18 18 14 11 7 6 11 67 86 100 100 99 100 100 96 18 26 32 38 55 49 46 54 59 64 67 56 49 61 83 92 96 98 95 99 96 81 96 97 86 80 73 78 75 99 96
40 30 22 22 16 12 7 4 49 88 99 100 100 100 100 97 16 28 31 44 61 46 37 45 61 65 72 62 72 88 97 98 98 98 100 98 88 92 97 98 86 72 71 63 64 84 95
63 50 40 33 29 20 11 8 29 87 99 100 99 100 100 73 20 28 32 52 61 57 52 36 64 85 88 81 82 96 97 100 100 100 100 94 91 96 99 91 75 70 70 58 68 75 96
90 58 60 60 44 26 28 12 19 87 100 100 100 99 100 46 23 28 40 57 62 44 45 48 60 85 96 98 97 98 99 94 92 100 98 99 99 95 90 85 71 80 76 78 84 74 94
87 81 96 89 78 57 40 22 72 82 99 100 100 98 100 27 25 30 46 53 53 41 34 55 72 86 91 95 89 96 97 97 98 96 99 98 98 96 94 89 82 82 80 98 94 96 88
90 94 96 98 99 89 42 63 97 98 99 100 100 100 99 19 27 33 51 65 56 29 36 53 68 78 81 79 76 83 78 81 98 95 89 97 89 90 89 77 97 94 71 75 91 95 76
90 93 97 96 95 96 83 100 100 99 99 100 100 100 93 23 29 37 57 65 30 27 32 50 59 61 68 72 68 71 78 81 79 72 78 85 98 94 91 91 92 90 72 69 61 69 66
83 83 92 91 95 99 99 97 98 99 99 100 97 100 41 28 35 39 60 56 27 29 34 43 57 58 70 73 73 62 64 78 87 80 64 83 94 99 97 98 88 76 74 64 55 75 57
77 74 60 95 97 98 99 73 98 99 99 99 99 90 25 31 42 42 58 62 35 29 38 39 40 62 83 85 76 72 59 61 78 80 71 66 70 94 91 87 90 77 70 61 62 63 63
47 22 43 97 98 99 92 91 94 99 99 99 100 57 26 32 44 44 51 58 51 38 36 41 44 65 74 83 80 69 68 67 50 71 66 66 78 88 85 76 73 74 68 63 52 68 62
37 22 84 98 100 46 88 93 99 99 100 100 99 24 34 37 43 38 46 67 58 52 53 52 47 61 74 80 77 76 67 68 54 49 59 64 74 83 80 77 68 67 68 72 69 67 68
25 30 97 100 85 55 88 92 99 99 99 100 74 28 42 42 41 46 43 70 71 68 66 55 47 59 69 79 77 71 68 69 67 63 60 62 65 61 65 69 72 73 69 68 74 77 69
20 71 100 100 88 78 74 97 99 99 99 95 22 27 20 30 40 42 46 68 63 69 71 62 56 56 59 77 78 69 63 64 70 71 71 68 66 76 81 82 79 74 77 67 62 63 71
29 91 96 97 94 94 99 98 99 99 97 30 30 23 20 24 37 46 53 64 65 62 58 54 58 68 66 60 69 66 63 63 64 75 77 77 78 74 74 70 69 68 69 68 68 68 57
40 96 93 96 98 98 98 99 99 99 49 18 30 24 24 25 42 52 46 55 72 66 61 63 63 67 66 68 61 63 68 72 69 77 75 77 74 69 72 76 70 64 62 60 60 59 59
55 95 97 97 97 97 98 98 99 66 26 30 31 31 21 29 37 47 57 56 71 72 61 65 73 78 72 71 69 68 69 77 82 80 79 77 75 74 77 68 73 57 61 55 52 52 57
93 96 97 97 98 98 95 99 54 62 28 43 33 32 27 35 45 54 63 62 72 77 74 67 71 72 74 76 75 72 73 77 82 86 84 77 80 77 76 76 60 47 55 59 58 48 45
75 96 94 97 97 98 98 98 93 60 37 42 32 29 27 34 51 59 61 72 61 67 76 82 82 80 79 79 72 64 69 69 69 73 78 84 91 85 86 82 80 58 64 59 55 48 59
76 82 90 94 97 98 98 98 95 71 37 35 32 29 30 32 40 54 59 70 70 67 65 74 77 83 78 73 73 68 66 70 70 71 69 77 84 92 97 88 72 62 66 65 72 58 60
40 51 91 91 95 97 96 98 91 39 30 29 31 30 36 33 31 41 54 68 59 61 58 60 72 77 83 80 78 70 68 72 72 67 66 65 65 69 84 90 79 73 73 77 70 70 76
35 54 74 88 80 97 97 98 58 37 41 28 30 29 38 31 29 36 48 61 56 55 55 56 55 62 75 71 69 68 68 76 70 68 66 64 61 68 66 69 64 71 74 81 82 79 81

GFSGBSN_700_rhum_096.txt.gz
RH
2 2 2 2 3 10 30 61 86 89 95 98 100 100 100 100 100 100 45 16 19 28 37 30 36 46 57 57 55 51 43 38 37 35 28 29 34 49 44 63 80 80 46 64 69 72 73
2 2 2 2 2 2 6 24 70 82 99 100 99 95 100 100 100 100 46 15 25 35 34 36 50 60 58 57 52 45 40 38 35 43 68 80 82 86 78 66 82 73 53 76 62 64 85
3 3 2 2 2 2 2 3 28 86 79 98 99 99 98 100 100 99 46 16 29 34 36 48 60 59 55 57 45 39 37 44 54 59 63 87 98 99 84 86 83 82 87 71 77 81 99
3 3 2 2 2 2 2 2 8 54 84 96 100 97 100 98 100 100 39 19 32 34 42 60 59 49 48 47 47 53 50 50 49 55 79 92 96 98 100 85 90 93 99 84 75 88 90
3 3 3 3 3 3 3 3 3 48 79 83 100 97 100 100 100 99 33 24 33 38 54 59 50 41 48 49 51 53 59 48 39 55 89 96 96 97 99 96 94 89 90 86 84 83 97
5 6 5 6 6 5 4 5 4 8 72 79 92 100 100 100 100 100 23 28 36 48 54 43 47 54 58 69 68 77 47 34 40 64 87 97 97 95 96 96 93 91 87 80 88 87 98
6 7 8 8 9 10 9 7 6 4 26 93 94 99 99 100 100 99 18 31 38 47 45 43 65 66 63 82 72 72 42 33 44 76 96 98 97 89 65 63 90 93 75 78 82 82 83
13 16 17 19 22 18 13 10 9 8 5 47 93 91 100 100 100 89 18 31 46 29 46 57 66 56 57 62 53 51 46 53 72 88 97 95 93 90 95 82 93 93 78 96 92 80 85
63 56 57 60 47 33 25 15 11 10 9 7 34 76 99 100 100 64 23 31 50 29 45 58 54 49 65 61 75 95 95 91 93 86 94 100 99 94 94 99 98 80 88 91 91 86 99
94 89 83 73 68 48 38 27 18 16 11 9 43 88 99 100 99 53 24 34 52 38 37 48 61 76 77 73 94 96 99 99 100 95 96 98 98 94 97 99 96 72 70 65 63 98 98
89 92 82 71 63 60 46 28 23 20 14 49 84 94 99 99 99 32 29 47 53 32 42 42 62 73 88 98 98 98 100 98 96 95 99 98 99 91 98 88 90 67 82 69 67 66 69
94 83 84 78 82 79 71 72 32 21 16 89 93 95 99 99 98 35 29 54 41 42 38 40 56 76 91 96 99 89 82 92 98 99 98 98 92 97 99 92 84 80 74 73 79 68 81
94 86 87 90 94 93 94 80 35 31 24 100 100 96 99 99 83 30 33 56 51 42 38 52 68 78 86 93 98 100 93 89 97 90 84 95 99 97 88 86 76 75 69 92 87 82 87
96 88 89 94 92 90 92 89 86 50 64 99 100 98 99 99 48 28 39 56 60 35 40 50 69 75 78 81 88 91 97 93 87 80 78 82 96 91 88 84 98 88 69 74 91 94 80
95 86 94 91 91 96 97 95 84 34 97 99 99 98 99 99 35 32 51 61 41 26 32 50 61 63 71 73 72 76 80 84 91 71 73 94 99 100 90 95 97 89 71 62 66 73 79
84 88 88 57 60 97 97 98 52 88 100 98 98 98 99 95 34 40 54 57 42 25 30 43 46 51 66 68 67 61 66 79 81 71 78 89 97 100 99 95 84 79 67 63 53 75 58
88 86 71 28 92 98 96 98 45 98 98 99 98 99 98 53 35 47 56 57 37 37 36 41 37 56 66 70 74 65 64 77 82 74 71 68 78 99 91 96 78 69 62 58 60 60 64
90 71 38 55 98 100 94 77 98 98 94 99 98 99 98 44 44 46 53 52 38 36 39 40 45 57 72 66 65 62 64 61 76 76 70 63 86 89 98 92 75 72 66 56 49 64 60
84 48 34 95 98 74 75 100 76 96 96 99 99 99 98 39 45 43 50 51 43 32 40 47 60 58 62 61 60 59 66 56 53 63 71 72 75 81 80 76 70 74 68 64 57 57 58
68 34 90 99 92 80 36 56 64 80 98 99 99 97 75 47 41 50 47 51 53 48 38 51 57 58 62 65 64 60 62 62 53 56 66 66 66 60 67 71 71 67 64 64 63 61 59
26 77 98 96 83 87 94 80 90 94 98 98 99 87 47 31 38 48 51 57 51 52 58 55 60 54 55 59 62 59 59 61 66 64 58 61 78 83 79 77 76 73 70 64 64 66 66
67 96 98 100 100 66 51 59 98 98 98 98 97 32 22 25 35 49 51 58 57 49 51 55 52 60 63 61 62 58 62 62 68 75 68 69 72 72 68 70 71 72 72 70 69 70 68
100 97 100 99 100 97 93 97 98 98 99 99 71 28 24 27 39 46 43 54 62 55 58 58 60 67 68 64 57 59 64 64 70 74 71 68 69 66 62 65 61 57 62 62 63 63 61
100 97 98 98 99 99 95 97 98 98 99 97 37 34 31 30 40 45 48 50 58 64 59 58 63 68 64 62 60 57 61 67 72 71 74 71 68 63 66 59 58 58 60 58 55 55 57
99 84 87 91 93 96 93 99 98 98 99 35 35 44 37 31 42 55 54 49 62 69 70 64 67 69 68 72 71 65 64 65 68 71 69 69 69 65 62 64 54 52 58 61 55 56 50
80 63 73 92 96 97 96 100 98 98 60 37 38 44 44 47 65 60 53 49 52 66 71 73 75 77 72 73 73 60 56 64 61 65 68 71 73 72 75 74 70 58 69 67 58 51 70
49 43 64 79 94 94 96 99 97 65 34 34 34 38 34 56 56 60 54 54 62 69 67 74 77 80 77 73 72 62 58 57 61 63 64 70 77 86 86 90 64 56 61 61 63 49 59
38 49 50 70 85 89 94 100 95 76 37 30 29 32 41 46 50 56 58 63 59 63 62 64 82 82 82 78 73 64 59 60 64 64 62 58 60 66 90 92 72 53 59 59 54 64 65
30 48 45 76 77 88 97 98 96 75 38 29 28 31 41 41 50 53 54 71 68 67 61 64 63 61 71 71 62 61 59 60 62 63 62 63 56 54 47 54 54 55 61 60 64 60 62

GFSGBSN_700_rhum_099.txt.gz
RH
13 9 6 5 4 3 2 2 2 3 16 24 81 86 99 95 99 100 100 99 61 15 32 37 36 39 49 57 58 58 55 47 34 27 28 29 29 31 28 27 46 56 52 62 56 71 84
12 9 7 5 4 3 3 3 2 2 3 18 56 87 99 94 99 98 100 99 35 27 33 36 41 58 58 56 49 45 42 34 29 28 26 29 40 57 57 36 55 37 55 60 84 71 77
5 4 3 3 3 3 3 4 3 3 3 4 33 82 96 99 100 100 100 99 28 30 34 41 57 60 53 42 39 41 40 34 32 34 42 54 63 88 86 79 58 58 81 79 72 74 74
2 2 2 3 3 3 3 3 4 4 4 3 17 80 97 98 100 100 100 99 27 32 42 56 60 46 37 35 40 42 41 39 35 43 44 55 78 94 94 96 75 68 99 95 46 76 88
3 4 5 6 6 6 5 5 4 4 6 6 4 72 89 99 100 99 99 98 32 36 52 56 44 41 37 46 51 52 62 55 47 38 40 67 92 98 97 96 87 85 92 90 73 66 84
7 9 11 15 13 14 12 9 8 8 8 9 5 14 82 97 100 99 100 78 34 48 48 42 39 46 47 56 58 52 53 41 24 33 56 82 95 97 95 99 93 94 90 85 92 67 88
21 45 54 55 62 53 44 32 18 12 10 11 9 6 57 84 100 99 99 28 35 49 44 42 46 48 37 37 50 41 38 37 31 38 56 84 97 96 87 78 82 97 78 73 82 84 83
39 58 76 97 95 76 68 59 52 24 13 12 11 8 28 56 96 99 99 36 42 33 45 49 53 53 47 55 76 91 82 72 69 66 79 100 92 98 87 76 80 96 83 83 84 89 82
91 92 90 86 84 79 68 58 49 42 23 16 14 15 45 40 81 97 98 38 44 39 44 44 57 62 60 65 88 94 96 96 90 88 92 95 94 96 94 70 88 96 78 90 97 99 99
90 92 96 93 76 72 75 64 50 36 31 25 19 19 58 54 100 99 70 38 52 51 39 45 64 76 81 79 85 98 90 85 95 90 96 97 97 99 98 85 94 90 85 67 72 76 98
91 94 96 96 79 76 74 68 63 54 30 28 23 20 100 58 100 99 48 44 59 45 45 43 64 74 85 99 99 96 78 90 97 98 98 99 97 99 100 92 95 75 86 68 82 65 63
92 96 96 88 80 77 77 78 69 61 60 33 21 32 84 84 98 98 47 55 58 41 37 44 65 81 84 89 99 91 85 99 99 98 99 97 94 98 99 91 93 57 85 76 81 64 82
95 96 95 92 83 91 93 92 89 81 69 28 18 72 100 95 99 97 52 59 51 40 39 50 69 79 89 91 100 98 92 98 99 94 96 98 99 100 94 99 91 81 77 83 74 77 80
96 96 96 81 84 96 96 97 95 91 51 22 97 73 98 100 98 84 59 64 57 33 46 56 64 79 88 93 94 91 86 91 88 81 90 94 98 96 93 89 97 81 64 66 85 87 83
95 94 88 88 95 91 93 96 93 94 56 41 98 98 100 98 98 82 69 71 43 32 44 55 59 62 72 79 81 82 78 88 84 77 81 82 99 97 90 83 77 65 60 65 71 79 80
86 79 85 83 71 68 97 97 98 92 35 84 99 100 98 96 98 61 72 64 53 31 46 53 46 53 65 67 68 65 72 85 90 83 88 90 97 97 99 96 78 72 64 60 57 71 71
71 78 87 72 58 99 100 98 97 99 59 96 100 100 98 98 93 72 75 68 49 30 44 45 34 51 59 70 64 63 72 78 79 76 69 76 80 94 93 89 78 68 62 55 58 58 58
78 89 64 86 96 99 90 96 88 71 94 94 98 98 97 98 77 71 69 66 45 30 41 37 39 48 64 66 63 67 64 68 67 63 72 79 82 94 95 85 75 69 60 50 47 59 56
51 70 96 99 100 98 77 96 56 88 80 73 95 98 97 96 76 60 66 62 43 38 37 31 42 50 58 59 63 63 64 54 56 59 63 67 77 74 75 76 73 62 66 56 48 49 55
81 97 98 100 98 69 79 77 88 88 95 97 94 94 97 89 56 56 58 56 48 41 36 30 37 51 54 53 58 58 64 55 52 55 60 58 59 57 68 71 65 59 62 61 56 47 50
97 98 100 98 92 64 55 59 83 52 92 98 98 94 86 70 47 52 56 51 56 44 40 33 41 46 54 49 54 55 57 59 61 56 54 63 74 68 70 69 68 69 67 65 65 63 56
97 98 98 100 89 76 84 86 52 91 97 98 98 98 93 37 45 48 49 50 61 43 30 31 35 47 60 62 59 54 54 54 58 65 59 57 67 67 65 65 68 72 70 67 66 64 65
81 95 98 98 100 100 95 90 94 97 98 98 98 34 34 30 40 49 40 55 66 51 43 40 41 54 64 66 64 58 56 54 58 65 66 67 65 66 67 62 57 59 60 58 62 63 63
84 75 98 98 100 100 96 81 91 96 98 99 95 37 29 28 36 42 46 57 65 55 45 44 53 68 70 61 60 56 53 55 62 64 63 64 58 57 60 54 51 64 62 60 60 57 56
80 74 72 82 92 88 83 80 90 99 100 98 47 32 29 27 36 49 55 67 68 61 58 50 58 71 69 66 66 59 58 58 58 60 61 57 54 50 50 50 53 57 61 63 60 51 48
48 69 67 68 71 73 78 78 90 100 100 46 31 28 22 24 41 52 58 67 65 61 63 62 67 71 70 69 63 53 49 56 56 57 58 58 53 50 54 59 50 52 55 61 60 54 42
49 68 62 55 62 62 68 63 76 94 67 36 28 25 28 38 38 55 56 57 65 68 63 65 71 75 71 68 66 60 51 49 53 53 52 61 60 64 66 56 49 47 48 51 57 42 45
45 62 67 60 61 60 58 63 73 64 50 36 26 24 28 40 42 49 54 57 61 66 64 58 72 72 75 74 73 60 56 55 57 55 52 51 52 56 76 76 56 40 46 46 45 44 46
39 66 70 64 63 62 61 60 74 65 46 37 28 25 30 32 48 50 51 61 57 62 64 62 64 58 64 65 58 58 56 55 54 53 54 55 50 45 37 37 35 36 40 40 36 29 30

GFSGBSN_700_rhum_102.txt.gz
RH
24 18 13 8 6 5 4 3 3 4 3 3 3 12 25 66 100 95 100 98 100 100 52 29 28 33 44 55 56 56 54 48 39 33 31 28 28 29 29 30 47 89 47 79 96 73 62
14 10 5 3 2 2 2 2 3 3 4 4 3 3 16 45 95 94 99 100 100 100 51 29 37 51 60 54 48 42 39 38 35 31 28 27 31 38 39 39 61 63 74 62 95 69 46
11 5 3 4 5 6 5 5 5 4 4 4 4 4 3 32 86 91 100 100 99 99 35 38 53 53 48 43 35 35 36 38 36 35 33 37 43 50 66 83 95 51 79 86 84 40 73
5 10 19 47 59 58 29 17 9 8 6 5 5 5 4 19 96 99 100 100 99 66 34 51 46 41 42 35 38 41 43 46 42 35 37 41 41 72 94 87 84 82 92 77 73 83 86
8 40 74 99 100 99 97 52 27 22 15 7 9 7 6 4 61 97 100 99 97 33 48 39 36 38 42 40 48 44 47 56 55 38 35 34 54 75 81 92 96 97 68 73 67 80 84
38 50 70 78 96 86 99 80 63 48 37 16 12 11 10 5 26 96 100 99 79 34 38 35 34 47 47 53 50 45 36 45 41 30 36 73 84 92 87 96 83 71 76 62 74 89 86
60 99 99 98 89 87 77 76 86 75 54 33 24 15 32 92 76 93 91 100 72 42 39 41 40 46 51 57 70 75 64 42 34 31 34 65 88 89 95 93 98 73 80 67 81 83 92
85 92 90 88 89 89 81 74 82 79 74 47 38 22 14 41 100 100 100 97 49 39 46 46 52 58 65 69 81 89 84 83 82 76 78 99 96 97 100 100 100 89 90 75 84 97 85
84 89 88 86 91 95 86 74 71 74 81 50 37 31 17 18 73 82 96 94 41 38 50 44 63 74 88 74 78 95 88 88 80 84 96 97 94 97 99 100 100 88 97 76 89 95 89
88 87 91 87 95 95 88 74 78 72 66 46 32 31 77 88 99 99 100 50 38 53 45 38 70 82 90 75 91 90 76 86 95 95 97 97 100 94 97 92 85 99 82 86 93 81 84
88 89 96 96 95 94 79 76 78 87 79 65 38 42 80 98 62 100 99 37 56 60 69 39 68 85 84 81 84 79 84 95 98 99 99 100 97 99 100 84 91 83 94 99 79 73 90
95 95 95 96 95 95 85 86 80 87 80 60 39 51 97 54 100 100 90 40 62 54 54 48 70 86 80 84 96 95 99 99 98 99 96 93 92 91 93 89 93 90 97 97 80 70 85
95 96 90 96 90 86 90 93 96 92 93 75 32 46 39 61 92 99 76 66 62 67 38 58 79 83 76 89 94 99 95 95 96 98 98 99 100 97 90 95 94 97 98 93 81 79 78
86 84 84 88 88 95 97 97 96 96 96 47 23 92 100 96 93 98 59 65 70 42 54 64 78 74 76 82 92 91 93 98 92 95 95 95 98 98 100 87 97 99 80 68 65 60 67
80 75 71 75 86 96 97 99 100 93 57 29 38 88 94 99 98 98 67 67 62 39 51 66 75 69 70 72 74 75 81 89 88 85 91 95 98 96 95 95 94 71 73 66 73 76 58
74 79 91 92 93 96 96 97 97 82 53 56 99 89 99 99 98 98 78 74 59 42 52 57 48 54 67 63 66 63 75 81 80 85 87 90 98 91 85 71 68 66 62 64 62 58 58
94 95 93 93 95 96 98 86 96 86 44 94 100 99 100 94 98 96 72 77 56 48 53 43 38 51 53 60 60 65 74 74 72 68 70 78 86 98 85 76 66 69 66 54 56 57 37
97 98 100 98 97 91 71 67 95 71 84 96 100 100 98 86 100 72 65 74 48 47 47 36 45 47 51 50 57 57 66 78 62 68 80 73 89 98 93 85 70 66 59 55 59 54 55
88 96 82 68 73 67 59 72 61 92 63 56 100 93 99 97 98 62 63 66 46 42 41 32 45 53 50 53 59 59 52 58 66 65 61 65 67 79 77 73 65 67 58 54 48 45 57
88 79 72 64 70 71 23 17 22 45 56 88 98 97 97 98 88 60 63 63 46 40 36 29 40 51 48 50 52 56 57 47 55 63 59 54 52 59 62 68 58 64 52 47 43 59 56
73 87 84 58 78 71 75 86 89 86 65 87 96 80 78 80 64 57 64 60 41 36 33 28 38 50 48 49 52 53 53 56 54 49 59 62 74 70 68 67 66 63 59 55 49 51 61
80 84 86 54 33 22 27 39 78 82 89 92 94 90 86 58 48 56 66 58 53 31 29 28 31 41 46 51 53 53 53 55 58 52 45 57 69 65 69 71 70 66 62 65 63 58 51
70 60 50 58 55 28 52 68 86 81 82 80 69 61 77 34 37 52 54 57 59 46 32 32 39 40 48 56 53 53 53 54 58 62 59 51 55 54 64 57 54 60 58 60 60 58 54
68 46 44 51 53 54 54 65 71 70 74 74 57 26 23 24 35 44 48 57 61 53 43 39 41 52 58 53 54 48 51 55 54 51 51 55 52 51 60 47 47 60 58 56 53 51 47
63 63 39 44 48 51 55 61 66 60 71 80 59 21 20 22 28 33 39 55 60 54 53 42 50 59 59 54 55 52 50 48 46 47 50 48 44 39 55 48 44 46 53 58 55 50 50
52 46 48 48 47 52 64 66 61 55 71 41 26 19 16 20 26 31 36 49 62 60 60 53 55 61 64 59 58 51 53 43 45 46 45 45 42 39 37 49 32 35 42 48 49 57 33
71 52 46 53 58 62 63 62 61 64 70 33 24 19 20 28 25 30 35 42 57 63 59 54 62 67 67 67 63 56 51 42 52 46 44 46 44 50 48 57 35 29 32 41 54 35 26
70 63 48 53 62 64 62 60 63 68 46 28 23 20 20 27 28 32 37 40 48 61 63 58 70 69 67 65 62 57 52 45 45 44 44 48 51 52 51 60 46 27 31 26 23 20 18
60 68 62 55 62 62 62 63 62 62 58 32 20 19 19 23 33 39 40 43 43 54 62 58 60 51 59 58 56 53 51 48 46 57 44 45 42 44 35 29 25 24 21 22 16 11 9

GFSGBSN_700_rhum_105.txt.gz
RH
38 34 30 24 16 9 6 4 4 4 3 3 3 3 3 3 14 62 76 98 98 97 97 97 58 31 31 43 55 48 44 38 36 30 33 35 33 75 72 58 61 66 69 74 77 81 86
43 40 32 25 30 33 39 48 19 8 7 4 4 3 3 4 4 22 70 87 96 100 100 84 42 34 41 43 42 32 30 29 30 35 34 30 26 37 38 73 78 66 58 59 64 70 86
47 39 28 38 87 98 98 99 93 42 16 9 5 5 4 4 4 25 72 90 96 99 95 58 36 40 28 44 33 29 31 34 39 41 45 52 34 40 88 96 94 93 88 72 65 69 78
44 44 76 98 91 96 95 90 92 90 44 22 9 8 6 7 54 55 84 95 99 100 71 36 36 24 30 34 30 34 36 42 49 54 47 48 38 57 93 83 83 100 96 87 61 60 70
57 93 84 93 93 96 95 88 87 88 93 49 28 15 9 10 8 25 97 73 90 82 39 37 23 23 39 38 36 37 43 53 97 65 59 59 66 80 93 99 97 98 90 74 63 48 64
82 94 93 96 96 96 96 93 98 89 94 94 43 33 13 11 8 15 73 99 96 56 40 28 25 36 48 44 44 47 50 55 58 83 74 62 81 88 84 100 87 91 92 61 57 44 65
96 91 91 97 98 98 98 99 97 90 90 86 51 46 20 89 45 82 99 100 99 70 44 27 32 42 49 53 67 80 91 80 69 65 100 100 92 96 99 98 94 100 79 68 72 42 84
78 81 99 98 97 96 96 96 96 94 87 72 50 46 28 67 76 99 99 78 94 56 34 40 44 53 60 66 78 92 98 100 100 100 98 97 87 94 96 93 96 95 81 76 62 77 71
95 95 95 95 93 96 95 96 93 90 80 70 53 41 22 14 54 98 98 71 53 47 37 38 47 68 87 87 86 100 97 96 99 97 97 97 94 95 98 88 90 93 87 82 97 77 74
95 92 92 94 96 94 94 94 88 88 71 53 44 35 22 30 45 69 87 98 61 41 34 34 57 76 84 92 89 95 100 100 98 97 97 95 99 100 94 96 94 72 72 94 91 74 74
76 82 81 88 91 96 95 91 84 84 66 56 45 47 88 58 99 87 98 80 45 44 71 39 67 81 90 92 97 99 100 98 100 100 98 100 99 85 95 95 91 89 86 91 94 69 73
84 78 88 86 93 85 91 91 89 91 74 56 39 42 95 74 96 97 97 52 54 39 69 48 71 88 89 90 96 99 98 99 95 96 99 95 99 99 99 97 90 100 97 93 98 87 65
94 82 75 79 86 83 88 87 93 92 76 63 39 68 95 96 98 98 99 57 44 77 38 57 83 90 100 84 84 91 99 96 97 98 98 98 97 86 83 96 95 98 98 93 89 93 72
98 90 74 66 83 89 94 96 76 81 70 48 29 35 63 84 98 98 96 55 83 52 51 68 85 80 86 75 78 90 97 97 93 92 99 86 89 78 79 97 98 96 92 83 92 82 72
97 96 84 81 90 96 96 90 80 78 70 35 26 90 100 91 98 98 74 93 70 43 59 78 74 76 74 63 65 85 91 99 92 87 99 98 96 98 96 83 82 90 79 62 67 52 60
98 98 98 99 78 81 96 93 70 48 36 25 91 99 99 98 98 98 82 89 47 49 68 72 62 67 61 71 74 76 82 82 81 88 94 93 94 90 81 77 84 69 58 70 64 52 57
86 61 69 76 77 81 79 66 54 27 43 46 74 94 99 97 98 90 91 77 44 58 62 54 70 66 66 70 68 78 84 85 71 78 85 92 94 80 72 85 79 85 74 62 58 52 36
80 42 51 53 54 59 47 38 42 76 67 60 73 98 95 96 100 95 86 61 45 61 48 40 51 49 72 52 79 78 91 70 62 76 92 83 95 96 76 67 67 91 87 70 64 41 45
79 25 15 33 39 41 18 21 18 21 28 19 62 74 95 99 100 97 57 56 41 51 37 40 47 44 44 55 78 70 44 60 65 57 64 70 77 80 73 71 70 79 74 70 49 58 60
41 65 59 41 25 12 14 10 12 31 70 83 74 76 81 88 81 95 52 52 42 44 36 34 46 44 42 58 49 61 66 44 54 57 51 55 75 76 70 82 63 78 74 49 49 58 52
29 22 33 46 56 65 66 60 37 54 69 74 72 76 73 75 51 46 51 58 37 43 35 32 46 52 54 69 67 52 51 60 46 53 54 69 76 58 63 63 62 61 60 68 48 67 64
15 20 38 37 46 59 64 65 67 75 74 69 78 73 46 69 34 41 49 56 59 40 34 34 41 43 47 53 48 76 49 53 58 48 55 58 64 58 57 57 62 56 54 69 59 76 76
62 41 58 67 65 62 61 62 64 64 67 73 64 71 70 27 27 36 43 53 46 36 32 30 34 54 45 46 46 46 46 49 56 50 41 39 47 70 68 51 53 55 48 50 50 53 62
57 51 53 58 67 75 72 74 70 70 74 35 27 19 19 19 23 32 34 35 47 40 31 30 33 38 48 45 42 40 43 49 49 50 47 51 45 45 58 46 53 50 42 41 43 43 42
68 55 59 61 62 62 65 67 65 65 72 61 21 17 16 18 24 28 32 38 44 42 37 33 35 48 49 44 60 70 64 61 41 43 46 45 50 52 54 38 42 36 28 37 36 31 26
53 62 47 47 62 63 66 69 64 64 46 27 16 15 13 16 19 23 29 42 49 46 45 39 42 50 55 52 60 62 44 44 53 51 33 36 36 59 54 45 27 50 28 37 38 58 22
31 50 60 50 50 65 67 69 65 69 45 21 16 14 17 18 17 22 27 39 43 49 62 43 45 55 59 61 77 66 54 40 57 56 55 49 40 63 50 52 44 23 26 32 53 40 18
16 40 45 55 52 56 61 62 67 62 32 23 18 15 15 17 16 22 26 35 43 46 56 47 58 61 62 70 72 72 63 64 46 38 39 55 56 59 58 61 52 21 23 27 23 15 12
10 28 55 51 60 60 59 63 69 50 36 27 21 17 16 15 22 23 26 34 37 48 52 52 53 51 56 61 53 47 64 41 45 45 37 46 39 56 38 50 21 19 18 18 18 13 10

GFSGBSN_700_rhum_108.txt.gz
RH
66 64 58 72 91 99 98 96 94 75 41 13 6 4 4 4 4 4 37 46 79 69 97 100 84 73 45 32 48 44 36 32 23 28 32 30 28 38 60 61 58 61 67 71 73 76 72
79 77 76 95 96 96 95 96 97 92 81 32 12 7 4 4 4 4 17 35 68 71 80 86 78 46 35 38 46 27 27 20 20 28 31 30 29 62 52 41 60 65 64 62 58 60 67
78 99 97 96 96 94 96 94 94 93 95 52 23 12 7 5 4 5 6 90 72 64 86 74 55 38 43 36 32 30 24 19 24 33 32 31 24 20 73 91 87 92 83 86 48 43 57
55 30 90 98 97 97 97 97 95 94 93 75 48 30 12 7 8 79 41 71 83 75 80 71 39 39 30 31 30 31 22 21 26 30 31 25 22 32 42 63 64 94 87 88 41 67 59
54 55 68 84 93 97 96 97 97 83 77 82 75 46 20 9 10 79 99 93 94 90 75 44 39 29 26 33 38 34 25 23 27 25 27 44 81 80 96 86 95 89 88 83 72 69 69
69 77 88 81 86 84 95 96 94 85 90 92 70 60 32 12 11 12 74 98 85 96 52 42 34 30 43 42 47 48 45 37 32 32 69 99 92 98 98 100 85 80 91 97 84 64 60
87 85 85 92 100 87 88 96 81 80 88 81 72 58 31 45 14 18 44 99 98 94 61 39 33 39 44 50 56 64 68 74 75 71 100 100 100 76 76 84 97 100 97 95 77 60 60
93 82 86 77 91 92 96 90 96 88 95 85 54 53 94 97 56 74 96 99 90 66 53 38 43 58 61 60 61 69 78 90 100 100 97 99 92 83 98 98 96 97 94 89 73 68 63
94 85 83 84 89 95 93 88 82 91 89 69 52 50 82 100 89 100 98 99 98 64 46 44 49 68 68 70 75 78 90 100 97 99 98 97 94 93 97 98 97 96 94 86 87 78 58
95 91 72 98 86 86 89 89 86 78 70 55 50 40 25 50 57 97 100 98 77 44 39 43 63 69 65 72 93 96 98 98 98 97 98 97 94 100 100 97 96 96 90 82 84 95 95
93 94 70 76 76 79 85 89 76 67 54 48 33 42 29 61 61 85 98 98 53 41 90 56 73 63 85 87 91 99 100 98 99 97 100 98 96 100 87 95 99 83 94 99 99 100 95
94 86 74 63 69 72 72 75 74 64 44 35 34 92 78 100 99 98 97 72 49 48 91 58 72 75 86 88 96 99 99 100 99 100 93 99 99 97 95 95 100 93 97 92 94 97 98
98 92 62 49 66 73 64 61 64 57 37 33 46 80 96 100 97 97 53 55 50 81 55 68 74 82 87 93 97 94 100 97 100 90 89 92 77 89 92 90 91 82 95 98 96 97 98
97 91 67 41 70 68 59 52 54 41 33 26 39 80 67 91 96 97 68 62 82 62 81 70 74 83 97 87 84 98 99 99 100 96 98 94 81 77 89 94 98 100 99 99 96 97 98
76 59 56 47 49 68 58 46 41 45 24 23 55 64 76 96 97 73 83 94 92 68 71 72 76 85 80 74 74 89 86 96 92 80 89 97 86 76 80 96 99 97 97 95 98 70 85
43 44 39 49 53 41 32 28 21 16 21 38 76 71 83 95 97 69 78 89 50 56 71 80 68 66 59 71 72 74 84 68 73 84 95 93 83 79 86 93 88 91 80 88 88 88 95
28 14 14 15 20 17 13 12 14 17 33 60 70 69 81 87 98 58 94 65 56 64 51 76 74 65 66 73 74 75 88 78 72 83 91 90 97 73 82 70 81 81 79 70 67 49 52
11 9 10 9 10 10 11 11 12 13 19 46 60 69 79 84 62 58 79 46 52 62 46 61 64 68 71 77 74 74 74 66 69 82 92 89 89 74 60 63 76 75 71 67 68 62 55
32 21 13 10 10 9 11 21 33 36 39 46 45 66 78 61 62 69 56 44 52 45 44 71 71 53 60 56 77 63 55 55 63 60 70 72 74 80 66 78 67 75 65 43 65 62 56
66 60 44 28 22 34 46 70 73 71 71 77 66 68 64 56 35 55 48 38 48 39 38 49 53 72 72 69 55 64 62 44 48 52 58 60 70 82 88 80 81 79 62 58 54 68 77
66 78 80 71 54 47 64 76 77 74 69 55 57 63 52 42 30 33 40 38 40 39 33 36 49 43 49 64 69 64 53 68 42 49 53 67 62 64 71 68 65 71 71 65 65 64 73
60 67 78 74 86 81 76 76 81 79 77 75 80 78 48 25 25 33 37 29 32 34 30 35 44 38 34 40 48 49 51 46 47 47 53 56 55 61 52 50 52 43 48 58 67 72 72
85 79 90 95 88 87 81 86 94 94 62 38 39 56 36 27 24 30 36 24 26 29 29 29 29 77 43 41 37 36 41 48 50 44 36 42 43 58 64 40 49 60 41 40 51 66 72
65 71 60 62 62 72 76 76 83 85 39 34 26 29 22 21 20 28 26 29 26 23 24 22 24 26 38 36 33 32 31 38 43 41 43 46 47 47 62 33 65 50 38 37 40 42 45
43 57 75 58 56 56 55 65 76 82 77 43 27 26 23 18 20 20 23 27 33 28 25 23 28 39 42 38 39 54 49 41 24 25 34 37 35 55 56 40 38 27 22 28 31 34 31
19 24 40 55 56 56 60 62 63 69 44 28 22 22 19 17 17 17 20 25 35 32 30 26 32 41 46 43 56 62 48 37 53 36 25 27 28 44 53 52 42 36 20 22 21 35 24
6 16 32 30 39 48 56 57 59 53 34 26 22 28 26 22 15 19 20 24 24 35 40 32 35 39 46 48 76 68 56 48 56 47 53 44 44 55 60 53 44 34 22 22 37 39 18
9 6 18 37 40 48 54 60 56 57 40 20 22 26 28 26 16 17 19 22 30 32 34 40 42 44 51 51 64 74 56 61 38 41 35 40 54 58 54 56 55 21 20 16 18 11 10
10 7 9 33 47 57 58 64 64 58 40 22 18 19 25 27 28 25 25 25 32 45 43 38 41 41 46 55 63 50 55 59 46 44 43 33 27 47 37 42 27 17 14 16 15 12 10

GFSGBSN_700_rhum_111.txt.gz
RH
96 92 84 79 76 91 98 96 97 98 98 92 93 21 6 5 4 5 4 24 66 72 77 76 85 86 71 52 35 38 36 32 26 20 20 21 26 27 26 35 45 63 66 70 78 80 81
94 86 80 51 86 88 96 98 97 98 97 96 91 33 11 5 5 5 5 38 99 91 81 84 78 80 62 36 32 34 31 21 18 19 21 24 24 22 24 32 50 39 41 29 30 38 51
93 53 61 70 71 92 86 98 94 98 97 96 86 43 18 8 5 5 9 57 100 79 81 83 85 81 43 37 24 31 26 23 19 22 25 20 25 25 22 25 27 25 28 24 22 20 22
57 89 92 84 80 82 84 88 97 97 97 95 74 76 30 10 11 42 37 60 94 79 73 83 96 44 36 26 28 33 31 26 21 26 22 21 25 23 20 20 23 38 41 33 22 44 33
87 94 90 93 87 75 87 92 96 96 95 86 83 90 44 11 76 97 80 67 98 96 89 91 49 34 26 31 36 39 36 34 23 22 17 22 22 18 20 30 58 60 65 66 74 66 73
93 94 91 78 79 81 88 89 94 95 86 85 88 72 42 12 57 100 98 100 88 98 84 47 36 27 38 44 49 55 58 62 56 43 40 52 45 55 68 88 89 80 97 94 88 51 67
95 95 83 76 78 77 89 76 77 84 77 76 74 61 36 15 12 50 94 100 98 94 76 41 31 38 43 51 59 70 83 82 76 76 80 83 71 63 78 90 97 100 100 93 76 56 84
94 92 66 58 89 85 76 72 71 68 70 72 68 51 78 80 18 20 75 82 97 83 59 39 42 63 67 74 68 83 76 76 82 87 90 88 71 80 94 97 98 97 96 86 72 61 91
87 70 51 62 92 70 78 68 68 74 73 53 41 45 97 99 70 69 87 98 100 59 47 54 57 74 77 84 94 97 89 90 89 87 92 98 92 98 98 97 95 86 87 77 84 75 56
98 49 43 50 65 71 63 72 61 56 55 43 43 42 96 79 98 95 98 100 96 48 42 54 68 75 74 94 94 90 87 75 82 86 89 83 85 97 98 97 96 87 68 86 92 100 84
98 69 29 36 53 58 56 52 44 31 39 40 42 38 46 41 60 92 96 97 61 52 78 71 76 86 91 90 97 97 98 96 99 92 91 92 85 98 92 86 97 74 88 82 98 99 97
53 19 18 39 42 41 40 48 40 35 30 34 36 22 32 52 90 93 89 52 42 58 72 69 78 87 91 95 97 93 99 100 97 96 99 100 99 91 99 91 98 96 92 97 98 98 98
40 25 29 40 39 35 43 36 23 22 30 49 29 57 90 70 79 84 62 47 59 55 67 73 75 80 85 93 91 91 100 98 98 94 92 98 74 93 82 78 85 98 97 96 97 96 98
30 31 34 35 32 36 41 31 20 32 43 40 58 74 85 86 58 56 51 64 55 88 90 77 75 75 74 84 89 92 92 86 95 99 96 87 72 80 82 97 98 99 98 98 96 97 98
28 26 19 26 21 20 22 24 22 28 40 35 48 73 81 75 51 50 47 41 76 80 80 77 80 80 74 74 76 90 92 80 76 90 83 88 78 86 95 98 98 99 99 97 98 89 89
9 15 14 15 15 15 17 20 19 20 24 52 72 76 74 55 43 42 42 62 70 72 75 76 71 66 67 71 74 78 85 75 68 82 88 97 88 76 91 75 80 84 85 84 84 96 96
9 9 10 11 11 13 13 14 22 26 34 64 74 72 40 40 46 41 52 72 72 60 60 73 71 70 65 73 75 79 72 75 78 77 90 95 96 72 67 72 75 75 72 67 74 72 90
9 9 10 12 11 11 15 22 33 51 68 72 71 54 49 42 36 39 53 52 49 45 57 60 62 65 64 71 68 63 62 64 66 78 86 85 84 69 66 69 65 70 67 61 67 63 62
18 14 19 26 31 44 38 30 35 44 51 62 66 43 34 35 33 36 43 50 38 39 43 46 60 68 64 68 68 52 49 58 58 58 64 72 70 74 73 53 45 62 57 55 63 72 78
36 41 42 58 65 69 70 69 68 72 71 70 60 45 32 36 25 32 42 41 31 38 47 49 62 55 69 60 55 54 56 53 55 54 56 56 69 65 72 72 70 68 59 44 42 69 83
52 58 52 54 63 70 79 77 73 68 65 50 53 53 31 29 28 24 32 33 32 27 34 48 51 44 47 55 60 39 45 54 44 54 59 55 56 60 64 63 60 59 69 63 63 60 61
50 52 58 69 67 64 67 76 82 84 68 68 83 59 34 25 24 22 23 28 26 25 25 29 33 29 37 32 35 39 39 38 43 47 50 57 53 67 51 56 61 48 69 61 54 59 68
30 57 52 50 63 72 67 64 67 64 37 25 45 67 45 24 25 26 21 22 20 23 21 19 22 25 36 32 26 30 32 40 42 40 37 42 52 52 60 43 54 60 42 51 53 49 50
46 50 59 60 52 54 57 54 57 28 28 21 24 27 34 34 26 26 26 22 18 19 20 19 18 27 30 27 27 29 26 25 32 36 37 42 40 41 40 34 58 33 35 38 48 45 43
13 32 49 60 53 49 51 57 56 63 40 23 25 23 26 26 27 24 24 29 27 22 20 18 21 34 36 32 32 29 32 27 27 24 29 33 32 39 33 45 41 35 24 27 28 28 23
7 6 16 34 42 44 37 48 55 61 57 22 20 26 22 21 25 29 29 27 34 25 22 18 21 30 35 32 33 43 46 32 37 26 23 22 25 27 50 43 46 29 19 23 26 22 18
20 7 6 12 39 42 42 52 62 62 51 29 17 18 24 25 29 28 28 35 38 33 32 26 30 32 34 37 44 60 57 50 41 35 31 27 29 28 39 60 37 33 25 22 30 27 12
30 15 6 6 20 42 51 51 63 63 60 52 21 16 15 20 27 20 25 35 44 46 42 42 38 39 43 46 47 61 54 45 39 30 32 30 40 42 44 59 45 18 19 18 13 9 12
40 24 10 6 9 41 56 59 55 56 52 57 29 19 15 14 18 19 25 31 50 61 60 52 42 47 50 48 57 56 45 44 45 36 35 39 26 37 36 25 25 20 17 16 15 14 14

GFSGBSN_700_rhum_114.txt.gz
RH
95 96 94 90 79 55 87 90 91 97 97 98 98 98 90 45 6 5 5 6 50 76 72 67 58 72 86 67 54 40 32 29 27 19 14 11 15 22 30 32 37 42 31 35 37 37 37
100 94 95 98 96 72 74 94 89 96 98 97 97 95 81 59 37 6 5 5 35 60 79 84 84 84 81 67 48 33 30 27 22 17 13 12 16 20 21 21 22 18 18 17 19 22 32
94 91 95 96 95 85 72 76 79 84 96 97 96 94 45 38 42 9 8 31 40 82 95 78 85 80 83 57 39 29 29 25 22 17 15 17 23 25 22 22 18 17 19 19 18 19 24
89 90 93 78 76 82 83 79 73 71 88 96 97 78 44 16 22 10 48 40 100 98 96 77 79 88 44 34 27 30 32 28 21 18 14 16 20 26 23 21 22 21 28 27 22 37 37
96 87 70 55 68 81 81 81 98 94 97 96 93 68 36 73 39 40 64 89 92 89 79 71 87 39 31 29 33 38 38 34 30 25 22 22 21 30 24 27 41 48 56 44 36 44 62
39 46 38 52 78 83 83 85 94 87 89 88 79 63 38 90 98 86 53 97 96 95 98 76 40 28 39 41 49 52 57 61 54 54 56 65 67 57 65 76 69 73 80 54 62 38 64
44 34 55 58 81 80 79 75 82 79 78 74 64 45 33 51 97 99 68 100 91 100 78 48 35 43 49 55 59 68 68 62 70 74 84 83 74 70 74 74 80 88 81 78 42 53 89
48 31 43 65 73 69 77 75 76 76 62 72 53 54 42 12 94 97 95 92 90 70 47 41 56 64 72 74 70 72 70 79 88 96 88 81 70 70 78 80 87 90 100 81 65 64 87
20 26 35 54 58 57 64 73 74 73 54 56 48 99 85 16 23 54 97 95 85 49 46 63 81 81 85 84 88 86 77 93 94 84 89 99 79 74 85 94 95 85 90 71 72 81 79
18 29 36 42 46 44 39 37 45 40 36 33 52 95 80 45 17 24 94 87 51 39 45 76 81 80 91 86 84 90 90 83 85 83 92 74 82 88 81 78 84 97 79 89 92 98 95
26 31 37 39 42 46 24 26 34 35 29 34 74 67 88 97 50 92 89 75 39 48 64 76 93 89 87 87 92 94 94 91 91 92 94 96 89 89 84 85 92 76 100 95 94 99 98
25 31 36 41 37 22 26 25 28 31 35 34 42 31 46 81 87 84 78 58 47 41 70 73 86 93 93 98 92 94 96 98 99 98 99 93 91 92 87 96 97 100 100 95 99 92 100
19 27 29 30 32 21 23 28 31 28 22 19 38 46 56 67 73 70 48 38 41 64 66 75 84 90 93 92 92 91 91 90 95 98 98 79 78 88 83 94 93 98 98 96 96 96 96
13 15 19 22 26 30 34 34 26 28 28 59 69 74 72 68 55 40 38 48 65 82 82 74 80 79 76 86 92 91 95 96 100 100 100 98 81 84 92 96 99 99 98 98 96 97 96
11 11 14 20 26 30 32 26 22 27 40 61 71 68 47 43 35 36 38 58 80 81 78 83 80 76 73 78 84 85 91 82 79 94 90 93 79 71 81 84 96 96 98 96 98 99 89
10 12 11 12 14 16 25 30 44 57 66 74 74 64 45 38 30 40 49 65 78 75 75 72 72 71 73 77 77 81 83 80 77 82 90 94 85 69 66 72 76 93 96 97 97 94 96
20 10 11 11 10 10 19 38 53 64 70 63 68 50 37 32 36 42 52 69 69 66 68 75 72 71 73 73 74 76 62 72 75 80 84 84 92 58 70 66 71 77 73 79 83 89 97
41 39 16 13 14 23 22 40 64 72 76 67 53 38 30 41 48 42 46 44 46 54 58 60 59 66 66 55 48 52 58 59 58 66 74 74 73 67 60 65 61 68 62 66 59 74 68
47 54 51 51 38 31 33 41 47 54 65 62 57 31 32 38 37 30 32 35 40 45 45 50 61 56 56 61 55 44 52 57 49 52 62 66 64 66 40 41 46 61 56 59 69 64 79
50 50 54 56 60 62 63 67 68 67 60 45 40 40 34 32 35 33 27 28 36 38 40 41 44 48 51 57 46 49 53 50 53 48 49 48 49 54 59 65 68 72 54 51 57 56 77
37 54 56 54 57 66 61 58 56 45 45 36 27 31 36 33 35 35 28 23 22 21 28 31 28 38 43 46 46 37 36 43 49 51 50 50 52 48 51 54 56 73 59 47 50 50 54
33 41 52 58 50 54 66 69 66 48 34 27 27 33 31 33 29 30 26 23 22 22 22 26 27 31 34 37 34 36 38 40 42 45 45 47 47 59 44 41 48 52 69 52 43 46 51
8 34 45 51 56 53 50 57 52 22 19 21 20 22 27 25 28 28 30 27 21 19 23 22 20 26 33 27 26 29 35 36 37 38 38 41 40 38 50 41 40 48 42 48 49 46 46
9 8 21 42 50 52 48 52 56 47 26 15 14 18 22 24 30 30 27 26 24 20 20 19 19 29 34 32 30 31 33 26 28 30 37 40 37 35 37 35 58 23 28 33 39 43 43
30 12 8 10 22 29 42 47 56 55 56 36 18 14 15 19 21 26 29 23 22 23 22 16 16 24 31 32 27 29 32 30 30 23 23 31 34 33 29 35 27 20 15 18 21 19 21
44 28 12 8 7 21 28 44 53 60 56 54 23 17 14 13 14 17 22 26 27 28 28 26 22 26 32 31 26 28 29 31 23 24 30 26 29 27 40 36 46 18 15 16 18 13 10
48 41 26 11 7 7 30 36 46 55 59 55 46 21 16 18 17 14 16 19 25 30 26 32 29 34 37 42 42 45 45 46 39 33 31 33 29 28 26 29 21 19 18 15 22 12 8
54 46 40 23 10 6 19 35 40 50 49 52 51 35 20 16 16 14 12 15 16 22 36 42 39 38 43 48 48 52 62 43 41 31 27 29 31 33 42 52 36 14 23 16 11 7 10
55 50 45 34 17 6 11 38 40 42 48 52 57 39 27 23 16 13 14 16 15 19 29 34 48 41 50 50 68 72 66 51 46 39 31 34 28 28 28 18 14 16 15 13 12 12 10

GFSGBSN_700_rhum_117.txt.gz
RH
76 92 91 96 96 96 95 71 91 95 94 93 98 97 98 88 93 10 6 9 24 67 76 76 91 68 60 84 63 53 42 32 20 17 15 12 10 12 12 17 23 30 25 27 31 30 31
69 79 89 79 76 87 89 86 72 82 79 96 97 97 94 78 87 26 6 6 28 98 88 76 69 61 59 80 60 49 31 25 21 18 14 12 13 14 12 12 14 13 12 13 16 18 21
99 61 63 64 69 78 85 84 76 74 72 94 98 92 82 51 58 31 6 38 42 56 70 75 65 68 80 67 55 34 26 27 22 17 14 14 15 16 15 16 15 16 15 15 16 18 19
60 46 76 63 85 92 83 86 87 74 62 78 93 92 55 31 66 39 14 54 67 69 83 92 71 74 71 54 33 23 30 30 23 19 17 15 16 16 16 18 18 18 21 19 22 24 26
83 49 69 78 83 75 78 91 96 89 85 89 88 72 24 34 50 38 76 79 94 84 99 81 82 67 38 29 26 34 36 34 34 30 27 24 23 25 25 26 31 45 51 54 52 47 46
23 29 59 74 67 62 80 96 95 91 90 80 68 56 47 84 56 98 87 99 98 83 95 82 56 38 32 33 45 51 51 51 53 58 59 55 56 58 57 57 67 74 74 69 65 50 60
24 38 51 46 50 55 59 74 72 72 76 75 62 48 78 87 94 93 91 85 88 99 75 54 42 38 44 56 55 59 60 61 69 69 70 70 66 64 70 77 78 77 78 73 43 43 76
34 31 39 43 43 55 54 53 59 60 71 70 83 42 36 97 92 77 99 100 91 74 50 50 46 50 58 58 65 71 71 78 77 75 70 68 60 71 74 75 74 80 84 57 46 58 82
31 35 36 26 24 30 44 40 35 58 57 92 80 39 30 94 97 99 93 89 80 39 60 80 79 71 76 82 85 81 74 68 67 62 89 93 70 57 57 53 69 78 90 76 90 87 76
22 29 25 24 25 26 28 25 27 32 47 67 91 57 12 24 93 95 91 74 44 42 57 80 78 87 86 86 88 84 76 76 74 68 73 58 69 66 67 69 88 99 82 98 97 99 97
18 17 17 19 22 24 25 27 30 50 57 70 78 65 37 20 60 87 72 44 41 40 85 86 88 83 94 87 84 92 80 78 85 83 88 82 85 94 95 83 98 90 100 98 93 100 100
19 20 18 17 18 24 27 30 35 41 56 38 46 60 58 69 70 71 43 43 42 40 82 84 90 95 94 90 87 85 86 94 97 99 99 81 85 86 86 93 100 100 100 100 99 100 99
15 19 22 22 23 23 23 21 18 28 43 45 60 65 71 75 68 72 42 44 48 68 75 81 90 91 91 89 84 81 81 89 94 96 93 85 74 77 82 94 94 99 99 94 95 96 92
13 17 15 12 14 14 14 16 38 61 75 73 60 64 69 70 67 48 41 50 60 78 80 77 81 78 82 91 89 85 86 93 88 94 99 94 56 63 80 86 97 99 99 98 98 96 91
6 18 16 21 18 16 20 25 36 56 64 64 62 65 50 41 30 35 43 59 78 79 74 80 78 77 78 81 83 83 92 87 72 89 92 83 56 63 64 77 89 96 98 97 100 99 93
22 8 14 28 37 47 50 54 60 62 61 41 38 44 40 30 27 38 52 64 78 76 77 73 72 71 78 79 80 84 82 75 76 75 85 86 77 53 58 61 74 86 95 96 97 97 93
49 41 18 12 26 48 57 60 62 60 55 40 31 29 27 33 45 46 48 59 66 64 66 68 68 68 72 76 78 79 64 65 72 78 85 86 85 53 61 57 71 78 82 83 87 86 93
49 53 49 47 24 27 47 57 54 54 51 36 27 32 34 42 53 43 45 45 48 53 56 55 58 61 65 63 55 57 59 59 59 66 79 80 78 66 51 60 64 73 76 75 70 68 74
50 52 56 51 49 55 53 53 50 46 43 34 26 33 40 46 42 33 37 39 39 42 46 51 54 56 64 67 60 45 52 58 58 62 66 65 65 55 31 37 48 68 77 73 70 65 72
28 51 54 56 57 51 50 52 45 44 28 31 22 28 37 34 27 27 30 35 37 40 41 40 40 45 46 49 45 42 47 50 52 54 56 55 54 55 55 52 55 52 62 67 74 66 59
15 32 48 49 53 58 57 54 49 37 32 23 21 22 25 32 28 22 23 29 34 32 38 32 29 37 37 37 43 36 34 37 39 49 50 50 51 48 44 46 47 44 55 50 53 54 55
19 11 35 47 44 45 56 55 37 19 24 25 24 20 16 23 30 25 18 19 21 23 26 30 29 33 34 31 28 30 32 33 34 38 38 40 45 38 32 34 37 36 38 46 53 51 49
43 23 8 18 43 49 44 51 56 43 16 15 17 18 19 17 20 26 25 22 19 19 23 22 22 26 34 30 26 23 26 31 33 32 33 35 36 39 33 35 25 23 27 32 35 42 49
52 40 24 10 7 21 34 42 50 56 54 17 14 16 16 16 15 15 16 18 21 20 20 20 21 22 36 32 29 27 26 27 25 30 31 36 39 37 31 24 36 12 12 18 19 22 25
54 50 39 25 12 7 17 28 43 53 58 58 28 14 15 16 15 15 16 15 14 15 18 20 18 18 29 35 32 26 29 30 30 32 32 32 40 35 33 32 14 8 10 11 13 8 8
61 54 50 39 26 13 7 22 31 47 56 62 51 26 13 15 15 14 14 15 16 16 15 17 19 19 23 28 32 31 24 28 27 30 31 35 32 37 37 37 30 12 11 10 11 9 7
88 58 55 48 38 25 13 7 34 41 52 61 56 45 21 12 14 16 18 17 16 17 20 17 17 19 25 32 31 35 36 39 37 35 34 40 43 41 38 32 13 12 16 12 13 8 8
99 89 57 55 47 36 20 7 16 37 46 56 60 57 40 24 16 12 12 13 15 16 19 28 31 23 22 27 40 46 55 47 38 33 33 31 29 29 40 38 27 14 15 12 10 8 6
100 98 80 59 51 44 27 9 11 38 40 49 52 60 55 36 29 27 16 13 12 16 20 23 27 33 35 35 36 34 42 43 42 38 32 30 27 31 29 18 15 15 14 14 13 11 10

GFSGBSN_700_rhum_120.txt.gz
RH
57 42 40 48 57 63 80 95 91 92 95 93 96 96 98 93 95 78 22 16 68 99 90 99 94 89 78 67 72 54 51 42 32 19 14 12 12 9 8 9 14 21 16 18 18 18 18
46 34 51 57 74 81 76 84 87 75 83 79 87 97 97 88 82 50 42 9 44 86 86 87 86 88 65 58 63 55 45 27 20 18 16 12 9 9 8 10 11 11 10 10 11 11 12
26 40 56 64 73 72 71 73 74 68 78 86 98 96 88 76 62 38 36 17 41 58 87 83 77 75 60 59 57 47 26 24 25 20 14 11 10 10 10 11 11 11 10 11 12 13 15
32 42 52 53 66 93 77 80 70 62 66 78 93 88 65 43 64 26 31 35 88 58 93 96 71 66 62 60 52 31 26 29 25 19 16 14 13 12 12 12 13 14 16 16 22 35 39
22 37 40 42 61 90 96 94 87 78 89 90 85 61 22 60 58 34 98 78 78 84 86 93 79 62 58 43 27 31 34 32 28 27 28 28 26 27 29 32 33 34 40 46 41 37 40
18 29 43 39 55 70 83 91 89 85 88 77 70 35 40 58 88 72 96 75 93 88 96 97 71 49 41 31 36 41 41 42 43 47 50 50 50 50 52 55 58 60 61 53 43 37 49
17 18 19 38 46 59 61 72 61 53 59 55 42 34 96 89 98 95 96 97 95 98 94 63 46 37 35 49 49 50 51 50 54 59 53 48 49 57 59 59 64 61 63 63 33 55 51
8 14 15 22 36 46 58 66 62 97 71 52 54 75 98 97 97 98 97 88 88 60 50 51 44 45 55 58 61 63 58 52 44 38 35 37 46 52 52 56 57 60 60 46 51 72 88
9 8 11 11 19 24 27 38 62 89 76 41 41 68 95 94 96 91 98 82 62 42 72 87 80 77 80 72 67 52 47 38 39 40 40 43 49 45 46 48 57 68 76 77 91 95 88
14 7 7 9 16 22 41 56 72 78 94 64 17 66 89 87 99 84 87 55 51 54 59 84 86 79 83 75 70 62 46 45 45 51 51 52 65 69 78 81 90 93 88 97 98 99 96
12 14 10 13 21 29 35 50 47 48 71 57 20 42 87 94 64 71 61 44 48 43 89 81 82 84 77 72 73 65 49 56 63 73 73 72 80 85 90 100 97 97 98 100 100 99 100
16 10 15 18 20 22 28 32 33 50 52 43 43 36 66 76 72 55 42 41 39 46 92 85 87 84 81 78 73 72 80 78 80 78 72 67 79 84 89 100 99 98 99 100 100 98 98
24 31 17 12 14 22 39 55 63 59 54 57 68 68 71 72 52 39 40 42 51 73 79 84 89 88 84 80 78 81 83 84 86 82 72 64 62 69 81 92 96 100 99 94 90 94 92
14 36 43 45 25 22 33 50 61 60 54 55 61 63 60 63 38 35 43 50 60 78 80 80 85 84 87 89 83 80 78 74 78 93 98 89 56 69 79 85 97 98 99 98 98 97 94
40 19 25 37 50 56 56 56 59 48 57 52 52 53 50 50 32 38 46 54 74 78 73 77 77 76 81 83 83 83 73 74 77 85 98 98 68 65 70 73 79 88 99 100 98 99 96
52 49 42 19 27 42 54 58 55 52 34 47 39 30 26 27 32 51 54 62 71 67 68 65 68 72 81 80 78 82 69 68 79 88 95 98 87 53 58 63 72 78 92 94 94 95 95
45 53 55 50 43 39 39 42 48 47 34 22 21 21 28 42 46 47 49 64 67 63 62 62 64 66 69 76 70 72 59 63 68 75 87 92 92 52 56 58 70 75 81 84 89 86 98
37 44 53 56 51 44 33 28 34 43 34 29 23 29 34 39 46 40 46 56 59 65 66 60 56 52 53 50 46 54 56 59 58 61 70 85 88 72 51 58 58 69 76 82 90 71 80
15 35 43 52 56 57 53 36 21 25 32 25 30 31 32 36 36 28 33 39 40 43 46 46 48 48 51 52 53 44 48 49 54 60 67 63 64 58 39 47 42 52 67 72 81 81 75
33 16 36 41 46 53 56 47 30 21 17 20 26 32 35 31 27 27 28 29 30 34 36 38 41 42 43 39 38 38 37 42 46 57 60 62 52 49 50 45 47 38 44 56 74 80 66
54 27 13 34 44 46 47 54 36 15 18 14 16 23 30 28 22 23 24 25 28 28 34 33 33 39 40 40 41 42 31 35 40 50 56 63 53 47 37 39 39 33 34 41 50 54 58
64 49 31 9 16 40 47 46 51 43 12 14 16 16 22 18 25 21 16 15 17 18 25 29 28 28 36 35 30 30 32 36 37 40 40 42 50 43 27 27 38 28 23 34 41 43 42
68 56 50 31 12 7 21 38 44 52 40 17 11 15 12 17 21 24 19 16 18 19 20 20 20 20 23 28 26 25 24 25 31 33 35 39 43 42 26 23 18 16 14 22 23 26 31
76 64 54 49 31 15 7 15 28 46 54 46 24 11 11 13 14 16 21 21 21 21 19 20 20 20 23 30 27 24 21 21 22 26 28 30 36 39 31 18 22 8 9 11 14 14 12
86 83 62 54 48 32 16 7 20 32 50 53 51 30 12 9 10 12 14 16 19 21 19 18 17 18 17 22 29 25 25 28 28 29 32 32 33 36 34 33 12 9 10 10 11 6 8
88 92 91 65 56 46 30 16 7 26 43 55 54 49 35 14 11 10 11 13 15 17 17 19 19 18 17 21 27 28 22 26 30 29 28 35 36 35 39 33 26 8 9 8 8 9 10
97 94 92 96 62 57 45 27 13 10 36 47 57 55 49 27 15 13 12 12 12 14 15 17 20 22 20 22 28 29 28 28 26 29 29 31 36 43 43 41 14 9 11 12 10 9 8
100 96 90 93 93 61 56 41 21 7 23 44 57 59 54 46 29 22 14 14 13 15 16 21 25 22 26 28 28 26 32 33 33 24 22 25 27 28 42 53 30 10 11 12 10 9 9
100 98 88 94 99 86 59 51 31 11 11 37 47 56 54 53 46 35 33 28 14 12 18 23 24 29 32 27 29 31 31 35 31 30 23 28 20 21 19 11 10 12 14 15 15 15 16

GFSGBSN_700_rhum_126.txt.gz
RH
30 33 61 62 54 58 54 62 77 83 83 92 90 88 88 75 71 92 51 43 66 57 98 98 94 87 86 67 41 38 34 32 29 27 27 26 24 19 16 14 12 11 10 8 7 7 7
24 37 47 62 52 45 60 69 86 68 71 90 92 88 96 82 70 79 55 38 97 98 97 99 99 87 80 63 54 48 39 38 34 29 23 17 14 12 11 10 9 8 7 7 7 7 7
19 35 39 46 54 46 68 85 83 90 73 85 84 83 81 78 69 79 64 40 76 98 86 99 94 82 72 59 43 41 36 27 22 19 18 17 15 12 10 8 8 9 9 11 12 14 15
21 30 43 43 43 51 62 74 78 84 81 76 80 72 65 56 89 68 60 55 98 100 96 86 85 78 57 44 38 39 33 21 21 20 16 13 11 11 13 15 16 17 20 23 20 24 25
30 32 39 58 56 69 56 58 53 56 55 39 28 40 58 68 77 34 52 81 97 90 79 76 74 65 49 43 37 27 20 22 21 17 16 17 18 22 26 30 33 33 40 33 24 20 19
30 39 39 55 60 48 52 50 34 61 73 83 89 86 66 61 87 93 89 98 98 88 82 82 75 57 37 30 21 24 25 23 23 26 29 31 32 32 31 32 42 43 40 33 24 28 28
39 38 41 43 51 55 63 40 55 64 85 94 90 96 90 96 98 82 98 93 89 91 96 59 45 35 27 28 30 24 32 36 25 21 20 19 20 24 23 26 29 30 33 37 40 59 50
34 48 48 46 21 31 50 70 88 86 74 78 93 96 98 96 97 92 81 93 79 61 44 38 34 33 36 34 39 31 24 23 22 19 17 18 21 24 31 38 45 53 67 79 64 70 79
38 39 53 61 24 25 45 59 68 76 78 83 85 84 95 96 96 93 83 75 62 40 42 52 49 51 45 36 31 26 26 29 30 33 35 38 43 45 57 74 80 83 89 90 92 88 81
46 38 39 51 43 47 42 57 59 67 70 73 81 84 67 71 72 72 68 55 41 40 43 60 52 43 40 35 32 30 31 35 38 39 40 50 63 64 75 88 92 94 92 98 91 96 84
38 42 34 34 44 42 47 51 54 56 67 66 69 72 60 45 48 54 50 45 41 38 69 55 57 45 40 39 33 31 33 46 48 48 56 64 65 68 78 89 92 94 98 100 99 100 98
38 30 38 32 28 38 44 49 51 48 58 53 52 59 44 46 46 40 36 38 42 43 83 59 54 50 42 39 49 54 59 58 58 54 53 54 56 62 67 80 92 99 95 99 99 98 94
50 46 36 37 29 25 34 32 31 38 50 49 50 43 35 30 33 40 39 42 48 66 58 60 56 50 50 56 58 64 72 69 65 59 50 50 55 59 66 76 85 93 99 87 88 92 73
51 51 49 46 34 27 20 31 25 26 21 34 42 31 25 30 33 36 43 43 50 65 73 61 60 64 69 65 61 62 65 68 65 61 66 62 62 54 66 72 76 95 96 97 86 72 68
39 48 48 49 40 30 27 17 23 26 24 23 23 23 25 30 44 48 43 45 71 70 65 64 66 64 64 64 66 63 64 66 64 61 74 79 61 55 64 67 75 79 99 96 96 91 86
15 38 44 44 42 34 27 31 18 19 20 23 29 34 37 41 42 35 33 43 53 56 58 56 58 57 64 63 61 60 58 56 54 56 62 72 74 52 56 62 66 76 72 96 92 84 76
48 14 37 42 42 30 27 21 26 18 19 22 26 27 30 30 33 34 35 49 54 53 54 56 59 60 58 56 51 49 50 54 49 54 60 72 79 55 51 60 71 68 84 84 92 95 67
78 49 15 32 41 42 19 16 14 18 17 19 19 22 20 21 25 32 38 40 43 48 50 49 49 48 51 54 51 42 42 42 44 47 56 63 74 67 42 41 52 58 65 65 87 70 78
81 78 47 17 20 38 41 19 12 10 14 17 18 19 18 14 16 19 24 30 34 35 34 33 37 37 40 41 43 46 40 36 39 43 52 59 76 79 46 40 41 46 47 55 62 89 85
83 83 73 45 20 10 33 38 23 10 8 13 18 19 17 14 11 11 13 17 19 22 24 26 29 31 33 30 33 34 34 37 34 41 50 62 52 52 54 43 41 52 47 46 58 87 69
65 90 89 65 43 24 8 21 35 34 11 10 10 13 20 20 16 13 11 11 12 14 15 17 19 20 22 23 23 24 26 30 31 40 52 60 54 42 31 28 35 28 24 33 38 35 63
56 76 99 83 58 45 26 8 11 29 39 13 9 9 10 13 16 14 15 11 9 9 10 11 13 14 14 14 17 24 24 21 22 30 44 43 48 40 16 16 17 20 18 18 21 24 22
56 67 95 98 82 59 49 29 10 9 25 41 22 11 10 9 10 11 12 16 14 12 11 10 11 11 11 12 11 16 20 22 27 31 32 38 39 43 33 16 21 18 6 6 7 9 11
56 72 87 100 96 87 64 52 32 14 8 18 40 42 25 12 10 12 12 12 14 18 16 15 15 14 14 13 13 12 12 15 19 21 31 36 40 50 34 21 32 6 6 8 8 8 9
58 74 84 99 100 98 90 73 57 38 21 9 15 39 47 46 22 12 10 12 13 12 14 15 18 17 17 16 16 14 13 15 15 20 27 34 47 60 43 46 13 7 6 7 8 8 9
61 64 91 95 100 100 99 93 88 62 47 29 12 13 35 51 47 32 14 12 12 14 13 14 16 18 21 24 22 23 18 15 19 22 24 36 54 65 57 50 23 6 7 8 9 10 9
70 74 94 94 100 100 98 99 95 95 71 53 32 14 12 32 46 51 46 26 14 14 14 15 17 19 21 26 35 29 24 19 20 24 24 31 48 64 84 68 14 10 10 10 12 10 10
78 76 99 98 100 100 100 100 100 100 100 79 54 32 15 13 32 45 54 52 46 29 25 16 18 20 25 32 33 28 32 27 25 23 20 23 25 28 58 74 42 10 10 11 12 15 17
61 78 86 97 99 100 100 99 99 99 100 100 81 48 31 17 15 37 46 54 52 43 26 20 25 20 23 27 32 32 33 34 29 29 20 24 17 19 19 12 12 11 13 16 17 16 17

GFSGBSN_700_rhum_129.txt.gz
RH
48 57 56 61 77 72 74 74 75 83 77 80 79 88 94 72 61 55 65 83 98 99 99 95 88 74 72 61 36 30 24 21 20 17 16 16 17 20 21 18 17 15 13 11 10 8 8
47 61 56 62 66 76 82 82 68 77 84 77 77 76 76 70 66 67 77 94 96 97 99 99 85 82 75 55 43 38 33 27 24 23 23 23 20 16 14 12 11 10 10 8 7 7 7
41 54 77 81 56 68 72 77 56 67 71 74 81 83 86 79 68 77 71 98 99 95 99 99 83 77 70 52 39 38 32 27 25 21 18 16 16 15 13 10 9 8 9 10 12 14 16
35 63 67 59 50 74 55 63 64 58 56 62 69 78 71 63 66 78 74 99 99 98 97 100 86 66 54 42 33 28 27 23 20 17 16 14 12 10 10 12 14 17 19 27 31 26 28
24 50 74 68 48 37 38 96 76 62 60 48 36 49 51 67 80 68 63 98 99 88 91 78 72 54 45 30 28 26 21 18 18 17 14 13 13 16 21 25 37 42 33 36 43 42 26
26 25 29 57 92 82 68 75 98 87 95 97 84 70 78 50 66 98 73 60 87 77 68 59 58 46 35 27 21 19 20 19 18 18 22 24 29 31 31 35 48 54 49 46 45 51 58
19 33 41 58 77 84 86 82 81 100 100 98 86 74 72 98 91 70 65 90 77 73 62 57 53 37 27 24 25 22 28 29 18 16 18 18 18 21 18 19 21 22 31 62 64 73 49
38 36 42 53 58 66 70 78 85 82 100 100 92 83 96 98 88 72 84 66 62 56 43 35 33 33 32 31 31 21 18 19 20 20 16 18 25 30 42 53 59 59 67 78 81 85 84
42 39 40 50 58 54 61 68 81 85 91 100 100 99 95 94 88 93 71 57 46 32 41 52 50 45 36 24 25 27 29 32 33 35 39 43 48 46 56 67 78 90 84 84 90 87 78
43 35 42 43 48 51 54 60 63 71 73 89 94 99 96 77 85 78 59 45 39 41 44 51 45 38 35 33 34 35 34 35 40 38 39 48 57 61 68 73 85 84 82 92 91 96 81
31 40 31 36 44 50 48 51 44 61 62 54 76 81 90 84 83 76 51 44 37 35 80 49 50 41 38 40 38 39 34 34 39 41 48 52 54 57 64 77 81 94 92 97 99 94 99
35 29 32 28 29 30 41 44 43 44 45 39 41 42 42 46 44 41 43 39 40 43 81 49 45 46 53 50 45 39 38 40 43 45 46 47 54 58 63 71 76 84 93 95 95 95 95
54 33 28 23 23 25 25 29 36 38 37 31 29 26 29 31 35 36 36 41 43 80 54 54 52 50 52 43 41 42 44 48 60 54 48 48 50 53 60 72 71 78 88 94 93 95 72
45 50 31 26 18 15 23 21 22 23 24 24 24 26 28 30 34 36 39 37 47 63 61 49 48 46 41 43 45 45 46 90 60 59 92 92 84 49 51 62 68 100 91 98 86 68 61
27 42 48 31 23 21 14 18 19 22 26 27 29 30 37 42 38 35 31 34 63 53 45 45 42 49 64 50 51 52 62 72 58 58 90 86 83 50 54 52 64 98 97 97 94 79 81
80 39 33 44 38 18 20 14 18 20 22 26 28 28 28 28 26 26 28 37 46 40 42 43 69 49 65 71 64 67 72 53 51 51 53 87 84 54 50 49 58 57 73 90 98 78 73
79 85 46 20 41 44 15 18 14 15 16 16 18 20 22 23 23 24 22 29 33 34 35 39 45 53 63 67 47 66 65 52 45 46 48 54 78 72 55 57 77 84 82 80 86 77 64
65 76 86 46 12 33 44 13 16 14 15 14 12 13 16 18 20 20 22 23 24 26 31 34 35 36 42 45 57 67 57 44 39 42 72 58 74 84 62 60 39 47 65 65 70 62 64
62 60 85 78 43 11 23 44 12 12 14 16 13 13 12 14 16 14 15 17 20 22 24 25 27 28 27 28 41 36 33 27 25 30 44 51 81 76 54 44 44 43 56 64 68 71 83
54 63 60 92 64 41 16 15 41 15 10 13 18 15 11 11 13 14 14 14 13 13 14 17 19 18 19 18 20 23 20 21 24 26 30 38 56 72 52 41 51 60 60 73 75 78 57
51 54 63 78 90 58 42 22 9 36 20 10 10 11 16 17 12 10 12 13 13 14 16 15 14 14 14 14 14 16 17 19 16 20 31 51 71 63 51 23 26 27 31 56 70 61 58
52 56 65 77 95 84 58 48 28 9 28 42 11 11 10 11 17 13 12 10 11 13 13 11 12 14 14 15 18 33 27 23 27 20 26 45 44 42 27 37 27 16 14 17 23 37 50
54 60 64 83 92 99 88 64 51 35 13 18 45 29 13 10 10 11 11 12 12 10 11 11 13 13 14 15 16 15 16 17 23 30 53 68 63 73 60 43 41 31 6 6 8 8 9
61 57 64 62 81 99 97 90 76 56 43 25 13 34 48 39 23 11 10 10 14 17 16 14 14 16 12 15 15 14 14 14 14 17 23 53 78 81 69 45 46 18 6 6 9 8 9
70 62 61 58 72 83 100 96 94 91 65 53 40 17 19 41 49 46 22 13 10 11 11 12 15 15 15 17 17 18 28 18 15 19 26 34 77 77 68 47 21 12 8 8 7 8 8
68 69 62 63 65 78 94 97 97 99 96 86 67 50 32 14 25 47 48 26 20 14 12 12 14 15 16 19 24 46 32 27 34 22 25 40 54 82 64 58 30 15 7 8 10 15 10
68 68 65 62 65 72 92 100 98 98 99 95 97 86 62 45 25 17 37 55 48 31 17 14 16 17 17 23 47 54 43 29 27 45 28 35 76 75 86 73 40 12 12 13 14 15 9
70 67 63 60 64 66 79 97 100 99 100 99 98 98 93 73 55 33 17 28 49 59 61 46 35 27 21 26 48 59 46 47 23 23 20 24 49 70 77 67 53 11 11 11 12 14 17
54 57 61 62 54 65 66 83 88 98 100 100 100 100 99 94 81 69 43 21 36 56 62 58 54 29 27 28 39 40 34 35 29 36 28 25 19 34 28 13 10 10 11 13 14 15 17